GFSFLT2_sfc_thetae_000.txt.gz
Theta_e
303 304 304 296 293 298 291 289 290 294 298 306 309 311 317 320 323 325 329 332 334 335 336 337 340 341 343 345 346 347 349 350
302 303 302 301 301 294 290 286 286 291 293 297 303 308 311 316 320 323 327 331 333 336 337 339 340 342 345 346 346 347 347 345
298 298 298 297 295 293 293 290 288 287 292 301 305 309 311 315 320 322 324 329 332 336 339 340 341 342 344 345 346 346 344 341
294 298 301 302 298 296 294 289 289 290 292 304 307 309 314 315 319 318 323 328 331 335 338 339 339 341 343 345 346 347 344 339
290 292 296 296 297 294 293 292 290 291 293 306 307 311 315 314 316 318 322 325 329 332 335 337 338 340 342 344 345 347 344 335
292 294 296 295 299 298 295 291 291 293 297 302 308 311 314 316 316 316 320 324 327 329 332 334 335 338 341 343 345 345 340 335
299 296 299 299 299 298 296 296 295 298 297 303 308 310 313 318 318 318 317 319 324 327 329 331 331 334 338 341 343 343 339 336
296 298 298 298 299 301 300 299 298 299 298 304 310 312 312 315 317 318 318 319 321 325 327 328 330 331 337 340 342 342 339 337
292 294 294 291 298 298 300 301 301 297 303 305 308 311 312 313 316 318 318 320 319 321 324 325 327 331 335 339 342 341 340 340
294 291 286 297 304 303 303 308 308 307 306 307 310 312 313 314 315 316 318 321 320 320 324 326 327 331 334 338 340 341 340 340
289 288 293 303 307 307 306 304 310 309 312 312 311 313 312 313 318 317 320 322 325 325 325 327 329 332 334 337 339 339 339 337
291 289 291 299 308 313 310 300 309 311 309 309 310 304 307 313 316 316 319 321 323 326 328 330 332 334 334 334 337 337 337 337
295 293 297 307 310 313 300 299 310 310 311 312 308 310 314 318 318 321 324 326 329 331 332 332 333 334 332 332 334 337 337 337
298 295 293 310 311 304 309 310 312 313 312 312 313 315 318 320 320 322 323 325 329 330 333 334 333 334 330 332 333 335 335 335
300 300 308 311 308 311 313 312 312 311 313 317 316 318 321 321 322 323 325 327 332 334 332 331 331 332 329 328 332 332 330 329
305 307 308 308 311 311 312 312 313 314 315 318 317 322 322 323 324 324 326 327 330 330 327 325 327 329 329 331 332 329 327 328
305 307 310 309 311 312 312 312 311 312 313 314 315 315 317 318 325 325 324 327 328 326 326 326 328 327 329 331 328 326 326 325
301 308 307 306 310 314 309 309 310 310 309 311 311 312 315 313 319 325 325 326 326 325 326 326 326 327 327 329 329 328 326 324
305 306 307 308 309 310 307 306 308 308 309 308 310 310 312 313 315 322 326 327 327 324 325 324 325 326 327 326 325 324 323 320

GFSFLT2_sfc_thetae_003.txt.gz
Theta_e
307 310 311 307 304 311 305 301 301 305 310 314 319 320 322 325 329 331 333 336 338 340 343 345 347 350 352 355 357 357 356 360
307 309 310 309 311 302 303 298 296 301 303 305 315 318 323 323 327 331 335 337 338 341 343 346 347 350 352 355 356 357 356 358
305 304 303 305 304 305 307 304 300 298 302 315 319 324 323 324 327 330 334 337 340 342 343 346 348 348 351 352 355 354 356 359
301 306 308 308 307 308 302 302 303 303 303 316 318 321 323 324 326 330 335 339 340 341 343 344 346 347 348 350 350 354 357 358
300 304 306 304 306 308 309 308 306 300 303 317 317 318 321 323 328 329 333 336 339 340 342 344 345 349 348 350 350 352 356 354
298 301 305 302 304 307 306 302 303 303 306 313 316 318 322 324 328 329 330 336 338 339 345 347 349 350 351 350 351 352 352 353
307 307 305 304 303 305 304 307 304 306 307 313 320 323 325 327 330 327 329 332 336 338 344 347 349 349 350 350 352 354 355 352
302 306 305 302 304 305 306 307 307 308 309 317 321 324 324 325 328 327 328 330 335 338 340 342 344 345 346 348 350 353 353 351
301 303 302 300 304 305 307 309 309 306 312 319 316 319 323 326 328 329 330 331 333 336 339 341 341 344 343 346 349 350 350 350
302 302 294 304 310 309 307 309 311 312 314 317 320 322 322 323 327 330 331 332 333 332 336 339 339 340 344 346 349 349 349 348
299 299 304 306 310 307 305 306 316 315 318 317 317 321 321 322 324 327 329 333 334 335 337 339 338 341 343 344 347 348 347 348
303 297 296 308 314 317 316 305 315 317 318 318 318 313 319 322 325 327 331 335 335 338 338 340 341 342 344 344 345 346 347 347
304 301 304 313 315 317 305 309 316 318 319 319 319 322 324 328 332 333 333 336 340 340 340 342 345 345 345 345 345 348 349 346
306 302 300 315 316 311 316 319 319 320 321 320 322 324 327 329 331 333 335 337 341 342 344 344 346 347 346 345 347 345 347 342
308 307 314 315 315 320 322 320 321 322 323 324 324 326 328 330 332 334 338 340 341 341 342 343 345 346 343 342 341 342 342 339
308 312 311 314 317 319 322 321 323 326 325 326 324 328 332 334 334 333 337 339 342 343 342 340 341 340 341 341 343 341 338 339
311 313 312 313 315 316 318 319 319 321 323 324 324 324 329 335 337 337 338 339 341 342 342 341 341 341 342 343 343 341 340 340
307 313 313 313 315 314 312 313 316 317 317 319 323 324 326 327 335 337 338 340 341 341 339 338 339 340 341 343 343 341 338 337
309 313 310 311 311 313 313 313 314 314 316 314 316 318 321 323 325 325 332 336 341 340 339 338 338 338 340 340 339 338 335 334

GFSFLT2_sfc_thetae_006.txt.gz
Theta_e
310 311 311 310 308 315 309 310 305 308 313 318 321 322 324 325 329 332 337 338 338 341 344 347 349 353 358 362 362 363 363 365
310 312 312 311 315 307 309 303 300 306 308 310 317 318 321 323 328 332 337 338 338 340 343 346 349 352 355 358 361 362 362 363
310 306 306 308 308 311 311 309 302 302 306 318 318 320 320 322 329 331 335 338 340 340 343 346 348 350 353 356 358 359 361 364
304 310 311 311 309 311 306 306 308 307 307 319 321 321 322 322 324 327 335 339 342 343 344 345 347 348 350 353 355 358 362 365
304 306 309 306 309 311 312 312 310 304 307 319 320 321 323 326 329 331 336 339 342 343 345 346 347 350 350 352 353 355 359 359
301 305 308 304 306 308 309 306 307 308 311 315 317 319 321 324 329 332 337 339 342 343 346 348 351 356 356 352 354 355 356 358
308 309 309 307 306 306 305 307 306 310 310 315 318 320 321 323 325 331 336 338 341 343 349 354 355 357 356 355 356 357 357 357
308 309 309 306 308 307 307 307 308 309 310 318 320 322 321 322 324 330 336 338 342 345 348 351 352 354 355 356 356 359 359 358
305 309 308 304 308 309 308 309 309 306 312 316 316 319 322 324 328 330 336 338 340 344 347 351 352 355 354 356 358 357 358 359
306 308 299 308 314 313 310 309 312 313 315 317 319 323 327 330 327 331 337 339 341 343 347 350 350 351 353 354 356 357 358 358
304 304 307 310 313 310 309 308 313 314 317 318 320 324 328 331 332 335 339 342 343 344 347 349 348 350 351 351 353 354 354 355
307 301 299 311 317 321 320 308 315 315 316 317 321 316 318 332 331 333 338 340 341 342 345 345 346 348 348 348 351 352 354 355
305 304 307 317 318 321 308 309 318 319 321 321 321 324 331 332 333 337 340 342 343 343 342 345 346 347 347 348 349 353 355 356
308 305 302 318 318 313 321 326 326 326 327 327 330 332 334 335 338 339 339 339 340 343 345 348 350 351 350 351 355 356 356 354
310 309 318 320 318 322 327 324 327 329 329 330 330 331 334 334 335 337 337 338 341 343 347 350 353 353 352 356 356 355 350 346
314 316 317 318 321 323 325 326 328 329 329 330 328 330 331 333 335 338 340 340 342 343 345 348 351 352 354 352 353 353 349 349
313 316 317 319 320 321 322 325 327 329 329 330 333 334 336 335 338 339 341 342 342 343 346 347 350 350 351 350 349 346 345 345
310 317 315 310 315 317 318 319 322 324 324 325 329 330 333 335 340 341 343 344 345 346 347 348 349 349 350 348 349 346 342 341
316 318 312 310 312 315 315 316 318 319 321 321 322 324 326 328 329 326 336 339 344 344 345 346 347 347 349 350 348 345 343 343

GFSFLT2_sfc_thetae_009.txt.gz
Theta_e
313 313 311 310 308 315 309 311 307 310 315 320 324 324 325 325 326 327 334 338 338 339 342 348 351 357 361 365 369 371 366 374
312 313 312 310 314 307 311 303 302 307 310 311 318 320 322 324 324 327 331 337 339 339 341 346 348 354 360 364 368 367 369 370
313 309 307 307 307 311 311 310 304 303 308 319 321 323 322 324 325 327 330 336 339 340 341 344 346 351 354 359 364 366 368 368
308 314 314 311 309 309 307 307 309 310 309 321 322 323 324 324 326 327 331 335 339 341 342 343 346 346 349 352 354 361 365 369
306 310 312 309 310 310 310 312 311 306 308 321 323 323 325 324 326 328 330 333 338 340 342 343 345 348 346 351 349 353 362 362
303 307 310 306 308 309 309 306 307 308 311 318 320 321 323 324 326 329 331 337 338 341 345 347 350 352 351 350 348 351 355 356
310 311 311 309 307 307 306 308 306 310 311 316 322 322 323 324 326 326 328 337 340 342 351 355 355 356 356 353 355 354 359 358
308 310 309 307 310 309 308 308 308 310 310 319 322 325 324 324 325 325 326 330 340 344 347 355 357 359 359 358 359 359 363 362
306 310 310 305 308 309 311 312 310 306 312 317 318 321 324 324 325 326 327 330 339 343 347 352 352 360 360 362 362 363 366 368
305 310 299 310 316 315 312 313 314 313 314 316 321 324 325 325 325 328 331 332 337 342 348 355 353 354 359 359 366 367 369 369
305 305 309 310 315 315 314 312 316 316 316 316 318 320 323 327 327 329 330 332 339 345 349 359 357 361 362 358 362 362 362 365
309 303 301 311 319 322 320 309 318 318 317 316 317 313 319 328 330 333 335 333 343 346 351 354 358 356 356 355 356 357 360 360
305 305 308 318 320 322 307 311 327 327 326 322 316 321 328 330 331 336 336 343 348 350 354 357 359 354 356 355 353 355 357 358
307 303 301 322 321 314 323 328 329 329 329 329 323 324 334 335 336 337 340 344 345 349 351 353 356 356 357 357 361 363 362 359
309 310 325 326 323 327 328 328 329 330 331 330 328 333 336 337 341 342 343 344 345 345 350 351 358 359 358 365 365 363 360 359
316 320 322 324 327 327 329 329 329 331 332 332 332 335 337 339 338 338 340 343 344 345 348 351 357 356 360 360 360 359 354 350
318 321 322 323 325 327 328 330 330 334 334 333 335 334 337 338 339 339 341 344 346 346 347 349 353 355 354 356 357 353 353 350
312 322 321 319 322 325 324 324 327 329 328 334 335 333 338 338 339 340 340 343 346 346 348 350 351 352 353 354 354 350 347 346
316 322 317 317 318 318 319 321 321 323 325 325 327 328 329 330 334 330 342 342 343 344 347 350 350 351 350 352 352 350 346 346

GFSFLT2_sfc_thetae_012.txt.gz
Theta_e
313 314 311 308 305 311 306 308 305 309 312 318 323 325 325 325 327 330 336 338 338 342 344 349 350 353 356 362 364 367 367 368
313 314 313 309 312 303 306 300 300 306 309 311 318 323 325 326 325 328 329 338 339 340 345 348 351 353 357 361 364 368 368 367
312 309 307 307 306 307 308 307 302 302 307 321 323 327 326 326 327 327 329 333 338 340 342 348 351 352 355 357 363 366 367 367
307 314 314 311 308 307 302 304 307 306 308 321 325 324 327 326 327 329 330 333 337 341 341 344 347 350 353 357 360 364 366 366
303 309 313 308 309 309 308 308 305 303 307 321 326 322 328 327 328 331 335 343 337 339 341 342 344 347 351 355 357 362 364 363
302 306 310 308 308 309 307 303 304 306 311 316 322 323 324 329 328 331 335 340 340 340 343 343 345 347 349 353 355 358 361 361
308 309 310 310 308 309 307 308 305 308 309 316 320 324 323 328 330 329 335 338 343 346 347 346 347 348 349 350 352 353 357 358
306 310 309 308 310 309 308 309 309 309 309 317 320 324 325 325 326 329 330 333 340 344 354 354 349 348 348 349 349 352 353 355
303 308 308 304 309 310 311 310 309 306 312 318 317 320 325 328 330 330 331 332 342 345 347 353 353 352 349 349 352 351 355 356
304 307 298 309 314 313 311 312 313 314 316 318 318 321 323 325 327 328 331 331 334 338 347 353 354 353 355 353 354 354 360 358
303 302 307 310 313 314 311 311 317 316 318 317 320 320 321 324 326 327 329 337 335 332 347 353 354 356 358 355 354 360 357 366
306 300 299 311 316 322 319 309 321 323 321 319 321 312 316 325 326 326 327 331 337 334 350 356 357 357 357 358 357 355 362 364
304 302 306 316 319 320 305 311 326 326 326 325 322 327 332 332 340 334 329 333 352 354 352 357 359 359 357 359 359 361 366 366
307 303 300 320 318 311 323 327 326 326 327 327 331 331 332 336 340 341 339 342 353 355 358 361 361 361 360 361 365 367 366 365
307 308 322 328 326 328 329 327 328 328 327 328 328 330 331 338 337 339 342 351 350 356 359 361 365 361 359 363 363 362 361 362
308 317 322 324 325 328 329 329 331 336 337 333 329 331 334 339 342 346 348 350 351 352 353 355 359 361 363 363 364 362 360 357
312 323 324 326 328 329 330 333 334 334 333 335 336 336 339 343 346 346 347 349 351 351 353 356 361 359 361 363 361 354 352 350
313 315 323 322 326 328 326 327 329 328 327 329 331 330 333 339 342 344 345 345 346 350 352 353 355 356 358 360 356 353 348 346
310 313 314 318 318 324 323 323 324 324 326 325 328 325 326 329 333 332 338 342 347 350 352 352 352 351 355 359 356 351 347 347

GFSFLT2_sfc_thetae_015.txt.gz
Theta_e
310 310 307 300 298 302 293 297 294 299 303 309 319 319 322 323 327 328 327 329 331 334 337 340 342 348 349 355 355 357 357 359
310 310 309 304 303 296 298 290 291 298 299 302 310 316 319 321 322 325 326 329 332 333 337 341 343 347 350 356 356 358 356 360
305 303 302 302 300 298 297 298 292 292 298 306 311 319 319 321 323 325 327 328 332 334 338 342 344 347 349 353 356 357 359 358
300 307 310 306 300 298 295 290 295 296 297 311 312 320 322 322 322 324 323 329 333 335 336 341 343 344 348 355 356 358 360 359
297 301 306 304 304 301 301 295 293 292 297 311 311 315 318 321 323 323 323 324 333 333 337 341 343 343 347 352 357 359 361 360
295 297 301 301 304 305 300 296 296 297 298 304 308 313 315 320 322 323 326 323 328 333 337 339 343 344 345 350 356 359 361 360
303 305 305 303 304 304 301 300 296 297 299 302 306 316 317 318 321 320 322 324 327 332 334 338 341 343 345 348 351 357 358 358
300 305 304 303 305 307 305 304 303 303 302 306 309 315 320 320 320 317 317 329 331 333 334 335 338 341 344 346 349 353 355 355
294 302 302 298 303 305 306 307 305 301 305 307 307 309 312 319 320 318 320 326 330 331 336 336 338 340 342 346 348 350 352 354
294 298 292 300 309 310 308 309 308 306 308 310 310 312 315 316 315 316 321 325 331 335 338 340 341 341 344 345 346 347 347 351
293 295 297 304 307 306 304 305 309 311 313 312 312 310 309 316 317 315 317 322 321 331 337 344 343 343 342 342 344 344 344 346
294 291 291 301 310 318 314 302 320 320 319 318 315 305 306 320 320 318 320 320 321 325 336 342 345 345 342 341 343 341 343 348
297 293 297 308 315 316 301 305 320 321 320 319 315 318 321 324 323 328 329 320 322 329 338 341 345 347 344 343 341 347 345 358
299 295 294 318 316 308 314 320 319 319 318 317 319 322 323 323 322 325 324 334 327 338 340 346 346 349 347 346 350 353 359 361
301 304 317 316 312 313 319 320 323 325 332 326 323 324 323 327 326 327 337 346 348 350 351 353 351 352 352 355 357 357 358 357
308 307 315 318 316 322 331 327 330 331 331 331 328 331 334 335 336 339 341 344 348 348 348 350 353 354 354 354 356 356 353 350
307 309 313 322 325 326 329 329 326 327 327 326 326 325 327 328 335 339 340 342 347 348 349 350 352 353 354 355 354 350 347 344
304 309 310 309 316 325 322 322 323 321 319 321 322 321 322 322 325 328 328 342 347 348 348 349 351 351 350 350 348 345 341 340
310 314 311 312 313 318 316 317 320 319 319 319 321 322 321 320 321 321 325 337 343 344 345 345 346 346 348 347 346 344 340 339

GFSFLT2_sfc_thetae_018.txt.gz
Theta_e
306 306 305 299 292 299 290 291 290 294 299 305 311 318 322 322 323 324 325 327 329 332 335 337 338 343 346 348 348 351 351 351
305 305 306 300 300 292 288 286 287 290 294 298 303 309 316 321 323 325 327 328 329 330 334 338 339 344 347 350 349 351 353 351
300 299 300 299 297 293 294 290 289 286 294 302 304 308 314 321 325 326 327 327 329 330 333 337 340 344 347 349 349 351 353 353
297 302 306 305 299 295 293 288 290 295 295 306 307 309 316 321 325 327 328 328 328 330 331 335 339 342 346 350 350 351 354 354
291 295 297 298 301 301 291 290 292 290 293 304 304 308 317 318 320 324 327 324 325 328 330 334 338 340 345 349 351 353 354 353
293 296 297 295 300 300 299 294 294 295 293 299 301 305 309 313 321 320 322 322 323 329 331 335 338 340 344 346 353 354 354 354
297 301 302 300 300 301 298 300 296 298 294 297 300 302 307 311 318 319 319 321 326 327 331 335 338 340 344 347 351 354 354 354
295 301 302 300 302 303 302 302 300 298 296 301 304 304 308 313 316 316 317 318 323 329 333 334 338 340 342 345 351 354 354 354
288 297 300 296 301 302 301 303 302 296 299 303 303 306 307 309 315 317 315 319 325 329 332 335 339 341 341 345 350 353 354 355
288 292 290 299 307 306 302 304 304 303 304 304 306 308 307 310 314 316 316 317 324 330 332 336 340 342 343 344 347 351 353 354
287 288 294 301 303 303 300 300 307 305 306 307 308 307 305 313 311 311 315 319 320 330 332 335 337 341 342 343 345 347 350 352
291 288 289 297 306 313 309 299 316 314 313 312 307 301 303 314 318 316 312 314 317 327 336 334 336 339 340 341 343 344 347 350
292 292 293 303 311 312 300 300 316 316 315 314 312 309 316 320 317 320 315 315 316 316 328 341 338 338 338 340 341 345 347 348
297 292 291 313 312 302 306 316 316 316 314 315 316 317 317 318 318 324 323 324 319 313 316 327 341 339 337 337 342 344 345 344
301 299 309 314 309 318 323 323 324 324 326 326 328 329 331 330 332 326 334 339 341 318 319 325 337 342 337 338 339 342 341 345
303 308 310 312 320 325 324 322 322 323 324 325 323 326 326 327 327 331 333 333 342 344 342 341 341 343 342 343 348 348 348 354
305 307 310 311 315 320 322 322 320 322 321 321 321 320 322 320 322 323 322 318 321 332 343 345 349 349 352 351 355 353 352 351
302 308 305 308 314 320 318 317 317 319 319 321 321 318 318 317 318 320 320 321 320 316 317 316 319 349 352 352 351 348 345 342
308 313 310 312 312 313 311 314 317 317 317 317 319 319 319 317 318 320 324 320 322 323 324 325 324 328 347 347 347 345 340 335

GFSFLT2_sfc_thetae_021.txt.gz
Theta_e
306 304 303 295 293 297 288 288 286 291 296 302 308 311 316 320 322 323 325 327 329 331 332 335 336 339 342 342 343 349 349 349
303 304 303 301 299 291 285 285 285 287 291 294 301 306 312 317 318 321 325 326 329 330 332 334 336 338 342 343 342 345 349 349
297 296 297 295 295 290 291 288 288 285 291 299 303 306 309 314 321 322 323 325 327 329 332 333 336 337 341 343 343 343 347 349
294 299 303 300 299 293 290 287 286 291 292 301 305 307 307 312 317 323 325 326 327 329 330 331 334 336 340 343 344 344 347 348
288 291 295 295 297 299 294 290 293 288 290 300 304 304 310 311 315 319 323 324 325 323 325 329 333 336 340 343 345 346 347 348
287 289 294 294 298 299 297 292 294 295 293 296 300 302 305 313 316 319 322 324 322 321 324 329 333 336 339 343 346 347 348 349
291 294 296 296 296 299 295 298 294 298 293 298 299 301 303 306 311 315 320 324 321 325 324 328 331 336 339 343 346 347 347 348
289 296 297 296 298 299 300 300 298 298 294 299 303 302 301 303 305 313 316 323 324 326 327 328 332 335 338 342 345 348 348 348
284 292 293 291 297 299 300 301 300 296 298 300 300 301 302 304 306 310 315 318 317 323 325 328 331 336 337 341 344 348 348 349
284 287 284 296 303 304 301 301 300 299 302 302 304 306 306 306 308 311 314 315 316 320 322 326 332 337 339 341 344 347 348 349
284 284 291 297 302 301 298 298 303 302 303 303 304 303 303 307 307 309 312 316 317 322 325 328 331 336 338 340 342 346 347 349
285 284 285 294 309 313 302 297 310 305 304 305 303 298 304 306 311 310 310 311 317 323 326 326 332 336 338 338 341 344 348 349
288 286 291 305 312 314 295 298 314 310 307 306 303 304 307 312 315 316 316 311 311 316 328 329 332 337 337 338 339 344 349 351
289 288 286 312 313 305 308 316 315 315 313 314 316 321 321 325 321 327 334 338 335 312 311 323 329 334 336 337 341 343 346 348
296 295 310 313 312 319 320 317 318 320 323 326 327 327 327 326 327 323 324 332 339 338 330 320 322 332 332 337 340 341 342 344
302 307 311 314 315 319 320 318 320 321 322 324 321 321 319 321 321 319 318 318 326 329 332 327 331 336 334 335 336 338 340 342
303 307 313 315 314 315 316 318 318 319 319 318 317 316 315 316 317 318 318 318 317 325 325 321 319 322 324 331 335 335 338 340
301 308 308 309 312 313 314 314 315 316 317 318 318 317 318 317 318 319 319 319 319 318 320 323 324 325 326 324 343 338 339 345
308 310 310 311 313 314 312 313 316 316 315 315 316 317 318 316 318 320 330 329 326 321 320 321 321 322 323 326 340 347 348 339

GFSFLT2_sfc_thetae_024.txt.gz
Theta_e
302 301 302 293 293 294 286 286 285 288 293 301 305 306 314 317 319 321 325 329 331 334 335 335 337 338 341 343 343 344 345 345
303 303 301 296 297 290 285 283 281 286 289 293 300 305 308 313 317 320 323 326 329 331 333 335 336 339 342 343 342 345 346 346
297 297 298 293 292 289 291 287 284 282 288 296 301 304 305 311 317 320 322 324 327 329 332 334 336 337 340 342 342 343 347 347
291 296 301 303 297 291 290 287 285 286 291 300 301 305 307 309 315 320 322 324 327 328 330 332 333 335 337 341 342 343 347 348
286 292 294 292 298 294 297 289 290 287 291 302 301 302 305 307 310 315 321 323 324 326 328 330 331 334 336 339 341 343 344 347
284 287 291 290 294 295 296 293 294 293 295 297 300 301 303 306 310 312 316 320 323 323 326 329 331 334 335 338 341 343 343 345
289 293 294 293 294 295 293 296 293 297 297 299 300 301 304 305 311 314 317 320 320 322 324 326 330 333 335 338 341 344 343 343
288 293 294 292 295 296 297 296 295 298 295 299 302 302 303 304 306 308 313 319 322 323 325 326 329 333 336 338 341 344 344 343
283 290 291 289 294 296 296 297 297 294 298 302 300 301 303 305 305 305 308 312 319 323 325 326 329 334 335 338 342 343 344 345
283 286 282 291 298 300 299 300 300 301 301 303 305 306 306 306 307 306 308 313 317 322 325 328 329 331 335 338 342 344 344 345
282 282 289 293 302 305 302 299 302 301 303 303 305 305 304 306 306 308 309 312 316 320 322 326 326 330 334 337 341 343 344 345
283 282 282 292 308 313 311 296 303 304 304 304 302 297 303 309 308 308 310 312 314 317 321 322 326 332 335 336 339 341 345 347
284 284 288 297 311 315 295 298 315 318 314 305 302 307 310 314 317 323 318 319 315 320 323 326 329 333 334 336 337 341 345 348
284 284 283 309 311 308 310 316 318 319 317 304 312 323 327 328 329 333 336 339 337 320 318 319 330 334 335 335 340 343 346 348
287 288 299 311 312 315 318 315 317 317 321 325 325 323 323 321 320 320 327 332 338 334 330 329 334 332 331 333 339 342 344 346
293 299 302 312 314 316 316 316 319 320 319 320 318 318 317 317 317 317 318 318 330 329 326 324 328 331 330 334 343 339 340 343
294 298 309 312 311 312 315 318 318 319 318 317 319 318 319 320 321 323 323 322 321 321 323 322 325 326 328 329 340 342 336 340
294 301 305 307 310 314 313 314 317 317 318 318 319 318 321 319 323 327 325 324 324 326 326 325 325 326 326 327 335 345 341 337
301 306 308 310 313 313 313 315 318 318 318 318 319 321 322 322 324 323 327 328 325 323 328 328 328 330 331 331 328 340 344 341

GFSFLT2_sfc_thetae_027.txt.gz
Theta_e
307 308 307 302 300 305 297 297 296 299 304 309 312 313 318 322 325 330 335 337 339 343 346 346 348 349 350 351 353 355 355 356
306 308 307 304 307 297 299 291 290 296 298 301 309 311 314 318 322 326 329 335 338 341 344 346 346 349 350 352 353 355 356 356
305 303 302 301 301 302 302 299 294 292 297 309 312 316 316 318 321 324 327 330 334 340 344 345 345 347 348 350 352 354 355 356
300 307 309 306 304 303 297 297 298 298 298 310 313 315 317 318 320 325 329 332 333 335 339 341 345 345 347 349 350 353 355 356
298 302 304 303 306 305 305 304 299 295 299 311 312 312 315 316 319 323 327 331 334 334 337 340 343 345 345 347 348 350 354 354
296 298 299 297 300 304 303 299 299 300 302 307 309 311 314 317 319 321 325 331 334 334 339 340 342 344 345 346 348 350 351 353
295 296 297 297 298 299 299 302 300 303 304 307 310 313 316 318 320 320 322 325 329 333 339 342 343 344 345 347 350 351 352 352
292 295 297 295 298 299 299 300 300 301 302 311 311 316 316 317 319 321 320 324 330 335 337 339 342 343 345 346 348 351 351 350
288 293 293 292 297 299 300 303 302 299 305 310 310 311 313 317 320 322 323 325 327 334 337 339 340 344 343 345 348 350 351 352
288 290 284 298 304 303 302 304 306 305 307 310 312 316 318 320 320 322 323 324 328 325 332 341 339 339 345 347 349 350 351 353
285 287 292 295 299 306 306 304 312 310 309 310 312 314 317 319 320 322 324 326 327 326 329 342 342 344 346 346 349 350 351 353
288 284 284 297 302 307 314 299 318 319 318 313 311 307 312 323 320 319 320 323 325 327 331 333 341 341 344 344 347 349 351 353
286 285 290 299 305 318 300 303 320 322 322 323 319 314 323 323 322 325 326 324 325 327 330 335 337 339 344 346 347 350 352 354
287 284 282 301 306 299 312 321 322 324 323 321 326 328 320 330 337 343 344 341 325 328 334 340 342 342 346 349 351 353 354 356
291 290 300 305 307 318 323 322 323 323 323 322 325 329 328 335 339 342 345 344 342 340 342 344 346 348 346 348 351 353 355 357
292 295 299 302 307 309 320 322 325 324 321 323 328 330 330 329 330 334 339 340 339 338 338 339 345 348 349 353 354 353 354 356
294 298 300 304 307 308 314 323 323 323 325 325 326 326 328 329 330 330 331 333 335 336 336 336 339 339 339 340 351 355 351 351
290 299 301 305 308 314 317 321 323 322 325 327 327 322 323 328 332 332 332 334 334 334 335 335 337 338 338 340 339 344 346 348
295 302 304 309 311 318 319 322 323 324 324 325 324 326 325 325 326 324 331 332 333 336 338 339 339 339 341 342 340 340 340 343

GFSFLT2_sfc_thetae_030.txt.gz
Theta_e
310 311 311 307 304 309 302 304 300 304 307 312 316 318 320 321 324 326 334 340 343 345 348 350 352 356 358 361 364 363 360 367
309 311 311 309 311 302 303 296 295 301 303 305 312 314 318 320 323 327 333 340 342 345 347 350 352 354 358 361 362 364 363 364
309 306 305 306 305 306 306 303 298 298 303 314 313 317 317 320 324 327 331 338 340 343 346 348 351 353 354 356 360 361 363 365
305 310 311 310 307 307 301 301 303 303 304 313 314 316 319 320 324 327 331 333 336 340 343 346 348 351 353 354 355 359 362 365
303 307 310 307 308 309 308 308 304 300 304 315 316 316 319 320 322 325 328 331 335 336 338 343 346 349 349 352 353 355 361 359
300 304 307 305 307 308 307 303 304 305 307 311 312 314 316 318 321 323 327 330 332 334 337 341 346 353 355 350 352 353 355 356
306 302 302 306 306 307 306 307 304 307 308 312 315 316 318 320 321 322 323 325 330 337 340 345 347 352 356 352 355 354 358 356
299 302 301 300 304 305 306 308 308 309 309 316 318 318 318 319 320 320 322 323 325 332 337 342 346 349 351 357 355 356 360 359
296 301 300 297 302 304 306 308 307 304 310 315 314 315 317 318 319 320 323 325 327 330 335 341 345 348 348 356 356 357 359 362
295 298 290 303 310 308 306 308 310 310 312 314 315 317 319 321 321 321 322 325 327 328 331 338 342 339 348 350 358 359 360 362
291 293 298 301 303 304 304 306 311 311 313 314 316 317 317 320 322 324 326 327 329 330 331 336 336 341 343 348 352 356 359 361
293 290 289 301 306 309 310 302 313 315 317 318 322 311 314 322 323 324 326 328 328 330 331 332 339 341 343 346 348 354 357 360
290 289 295 304 307 315 300 310 321 321 322 324 323 325 329 331 331 331 331 331 333 334 332 336 343 344 345 347 347 354 356 356
290 288 287 303 303 299 312 318 320 322 322 323 326 329 333 335 336 334 333 339 344 337 333 337 344 343 346 355 356 359 360 359
293 293 302 305 304 309 312 311 314 321 326 327 327 329 333 336 338 331 337 343 346 334 338 347 352 350 349 357 359 359 359 362
295 297 301 304 307 308 309 309 313 315 322 327 327 331 334 337 337 339 344 348 348 344 343 348 354 355 357 358 358 358 357 359
296 301 302 302 304 306 308 310 310 312 320 326 329 332 336 336 337 341 345 345 347 346 346 346 350 351 352 356 362 356 358 358
293 301 302 303 306 308 307 310 312 316 318 326 329 329 333 336 340 339 340 341 341 342 343 343 344 345 347 348 348 351 353 352
300 304 304 306 308 309 311 313 316 319 323 326 326 328 329 331 331 328 339 341 342 343 345 346 345 344 342 345 349 349 347 349

GFSFLT2_sfc_thetae_033.txt.gz
Theta_e
313 313 313 309 305 310 306 307 303 305 309 314 318 319 322 324 326 328 333 337 341 345 347 351 352 356 358 362 366 368 367 369
312 313 313 312 312 304 305 299 299 304 306 306 314 316 320 322 324 327 331 336 340 344 346 351 352 356 359 361 364 367 366 368
312 308 307 308 308 308 308 306 301 300 305 315 316 318 319 322 324 326 328 334 339 343 346 350 352 352 356 360 364 366 367 368
308 312 314 312 309 310 303 304 306 306 307 316 318 318 321 321 325 326 330 333 339 343 345 346 350 351 353 357 357 365 367 368
307 309 312 309 310 311 311 310 306 302 306 318 318 319 321 321 324 327 330 333 339 341 343 344 347 352 352 356 355 357 363 365
304 307 309 306 308 310 310 306 306 307 309 313 316 318 320 322 325 327 328 330 335 336 339 344 348 355 357 355 356 357 358 360
309 311 310 309 308 309 308 309 306 310 310 314 317 318 320 322 324 325 327 328 331 334 339 346 352 357 359 355 359 358 361 361
306 309 307 306 310 309 309 310 310 311 311 319 320 321 320 320 321 321 323 325 327 329 336 340 347 355 357 360 358 360 363 361
300 307 306 301 307 309 311 312 312 308 314 319 317 318 319 321 322 322 323 325 326 328 331 338 341 349 352 360 362 360 362 365
298 303 295 307 313 312 310 312 314 314 316 318 318 321 322 323 322 323 324 326 327 327 330 336 336 340 349 351 364 363 363 363
295 298 303 306 309 310 308 308 314 314 315 316 318 319 319 323 324 325 326 327 328 329 330 339 335 339 344 350 357 362 363 364
297 294 295 305 310 312 313 304 315 315 315 315 319 313 318 330 332 329 327 328 329 330 331 332 338 335 336 339 349 360 361 365
293 294 300 308 312 314 301 311 318 318 318 320 320 325 331 333 333 337 339 338 338 338 336 338 339 337 348 346 346 355 362 366
294 292 291 308 307 304 312 319 318 320 322 324 327 328 329 331 334 337 339 340 338 338 343 347 343 345 356 356 360 366 365 365
296 296 306 309 308 311 311 311 313 314 316 318 320 326 329 331 336 339 341 340 335 337 347 343 347 349 355 364 370 369 369 370
297 301 303 305 308 309 310 310 312 313 314 314 314 322 328 332 337 340 341 343 347 348 346 344 353 356 356 363 365 367 369 371
298 301 304 305 307 308 308 310 310 311 313 314 315 318 327 333 340 340 344 348 348 350 352 352 357 359 361 362 361 359 360 360
294 303 303 305 308 310 308 307 309 310 311 317 319 322 331 332 340 344 344 345 348 348 347 348 349 350 352 353 360 362 359 358
300 305 305 306 308 310 309 309 311 312 315 316 321 325 333 331 339 335 343 343 344 346 348 349 348 344 347 353 353 353 353 354

GFSFLT2_sfc_thetae_036.txt.gz
Theta_e
313 312 312 307 303 309 303 304 300 303 307 312 317 318 321 322 326 329 332 336 341 346 347 347 347 349 352 356 360 362 361 364
311 313 312 310 312 302 304 297 297 302 306 306 312 316 319 321 323 328 331 335 341 345 348 349 348 350 352 357 359 362 363 363
311 308 306 307 307 307 306 304 299 300 303 317 316 318 320 322 324 327 331 334 339 344 347 350 350 350 351 353 359 361 363 363
307 313 313 311 308 309 302 302 305 305 305 317 320 321 321 322 325 328 332 336 338 343 347 349 350 351 351 353 356 361 364 364
303 310 312 308 309 310 310 308 305 302 304 318 319 319 324 322 326 328 333 334 337 342 344 348 350 351 352 353 354 360 364 363
301 306 311 307 307 309 308 304 305 306 308 313 316 317 321 325 328 329 333 335 337 340 344 347 350 352 353 354 355 357 361 362
308 311 311 308 307 308 307 310 306 308 309 314 319 319 322 325 329 330 333 336 340 340 344 347 350 353 354 355 356 357 357 359
305 309 309 308 308 308 309 309 310 310 311 318 321 323 323 325 326 328 330 331 335 339 345 353 351 354 353 355 357 358 357 357
298 306 307 304 308 309 310 311 310 308 315 319 319 320 322 323 323 323 323 326 330 336 341 345 348 358 357 357 359 360 358 360
298 302 295 308 315 313 311 312 313 315 318 321 323 324 324 325 323 326 327 330 335 329 334 346 340 340 352 360 361 359 363 361
296 298 304 307 311 311 309 310 315 315 318 318 319 320 320 323 324 325 330 332 333 331 333 350 343 345 348 351 360 361 359 362
297 294 295 307 312 315 315 304 316 316 315 316 317 310 322 332 333 334 337 340 343 342 342 338 353 344 352 350 354 358 359 359
294 294 301 307 310 314 303 308 320 320 321 319 317 326 330 332 332 335 339 342 345 345 344 354 356 352 358 351 350 356 361 363
294 293 292 309 309 305 313 316 315 316 317 318 320 322 327 329 333 336 339 342 343 345 346 348 362 361 358 362 366 371 366 363
296 297 311 311 308 311 311 310 313 312 313 314 314 315 318 324 333 337 343 345 344 343 347 350 364 366 358 371 377 375 375 370
297 300 303 305 308 309 310 309 311 312 311 312 312 314 316 320 328 336 344 346 352 352 353 359 362 361 367 368 371 374 376 375
297 301 305 305 306 308 308 310 309 310 310 310 311 312 318 322 331 333 338 348 351 353 356 359 363 362 362 367 371 368 369 370
294 302 303 306 308 310 308 308 310 310 310 312 313 316 320 323 333 334 340 347 350 352 352 351 351 352 355 358 363 369 365 362
297 303 303 305 308 309 308 309 311 311 312 312 314 316 319 321 333 332 338 345 346 349 347 351 350 347 349 356 358 360 362 366

GFSFLT2_sfc_thetae_039.txt.gz
Theta_e
314 312 308 302 298 300 292 294 290 293 297 304 309 311 312 314 322 331 333 336 337 337 338 338 340 345 347 351 350 352 354 354
310 313 311 305 304 295 296 287 287 294 296 298 303 306 311 311 313 328 332 335 338 338 338 339 340 345 348 353 352 353 353 355
305 304 303 301 300 300 295 294 288 289 295 307 306 308 310 312 314 324 331 334 339 339 340 340 341 344 346 349 353 354 354 354
297 306 310 306 302 300 296 291 295 294 296 311 310 311 312 314 314 319 329 331 339 341 341 340 340 342 344 347 352 354 356 355
295 299 304 303 304 303 299 298 295 292 295 312 312 312 313 314 316 317 325 331 338 341 340 341 340 341 343 346 350 353 356 356
292 296 300 300 304 304 301 297 297 297 299 305 311 310 314 314 319 319 325 329 336 338 341 342 342 342 343 344 348 353 355 356
301 304 305 306 304 304 301 301 298 299 301 306 308 312 315 317 319 322 323 328 332 337 339 342 343 343 344 345 347 350 353 355
298 304 306 305 307 306 305 304 303 304 301 311 314 316 317 318 318 317 319 325 327 332 338 341 344 344 345 346 347 349 351 353
291 301 302 298 304 306 305 307 305 301 304 312 311 315 314 316 317 316 317 319 320 321 327 337 344 346 346 348 349 349 348 352
291 296 289 301 309 311 307 308 308 307 313 313 316 320 320 319 316 317 320 321 321 320 323 325 337 348 348 349 349 349 349 350
290 294 298 304 307 306 304 307 313 314 315 315 320 323 322 327 329 328 329 331 332 332 332 331 330 331 349 348 350 351 349 350
292 291 292 300 305 308 309 301 311 314 317 315 321 314 317 326 329 330 332 333 334 335 334 334 335 335 342 349 349 349 352 354
290 290 296 301 305 312 299 301 308 309 310 310 308 311 317 327 328 331 334 335 336 334 334 336 337 335 336 337 348 351 351 352
289 290 289 302 304 298 307 309 308 307 308 308 309 311 313 316 325 332 331 338 339 334 333 335 335 337 334 334 344 348 351 352
292 292 300 302 301 305 306 304 305 305 306 306 307 308 312 314 320 327 329 330 341 343 345 345 335 338 336 347 350 355 350 351
292 296 297 302 304 306 306 305 305 305 305 306 305 307 310 314 316 324 328 330 339 343 345 351 352 352 351 354 351 347 352 357
292 295 298 302 301 304 304 306 307 307 307 307 306 308 310 312 314 326 327 331 336 338 343 345 348 347 349 349 352 355 349 359
287 294 294 296 300 302 301 303 306 307 309 311 309 309 312 310 313 326 327 330 333 337 341 342 344 343 342 344 348 350 354 356
292 296 296 298 300 301 300 302 306 307 307 307 308 310 308 308 309 316 328 329 331 335 339 341 341 340 341 343 347 344 343 350

GFSFLT2_sfc_thetae_042.txt.gz
Theta_e
309 311 309 303 299 300 289 288 287 291 294 300 305 306 310 322 328 327 331 333 334 336 337 338 340 343 343 343 343 347 348 349
307 309 310 302 302 293 288 285 283 290 291 294 300 303 304 308 323 326 333 334 334 336 337 338 340 343 345 345 343 345 349 348
298 299 302 301 299 294 295 289 286 285 292 300 301 303 304 306 321 329 332 333 334 335 338 338 340 342 344 345 345 346 348 351
294 301 303 308 298 297 294 288 289 289 295 306 305 307 308 309 311 329 333 334 335 335 337 337 338 341 342 347 346 347 349 351
290 293 297 296 303 297 294 292 290 291 295 305 306 309 309 311 310 317 330 334 335 335 336 336 337 340 344 346 348 349 350 350
284 289 295 294 299 302 296 292 293 294 296 302 304 308 307 306 310 317 328 332 335 335 336 337 337 339 342 345 350 351 351 351
287 291 295 297 300 301 297 300 295 297 297 301 303 310 308 310 313 317 326 331 335 336 336 337 337 338 341 344 347 351 351 351
286 296 299 300 304 304 301 301 299 298 298 303 307 312 312 313 317 318 322 331 336 337 337 337 337 338 340 342 345 349 350 351
283 295 300 295 299 303 302 302 301 296 300 305 312 318 318 310 313 313 318 329 335 337 338 339 339 340 339 341 344 348 349 350
283 291 288 299 304 303 304 304 305 309 306 317 319 321 323 324 324 325 325 323 319 324 333 339 341 342 342 342 343 344 346 350
283 290 295 298 299 298 297 299 304 305 317 319 321 321 321 326 329 326 327 328 328 329 329 327 340 344 344 343 344 343 344 345
284 287 288 293 300 307 307 292 303 305 305 311 316 310 313 322 329 329 336 332 329 329 329 329 332 330 343 344 345 344 345 346
287 288 293 298 301 309 293 295 304 303 303 303 304 305 308 320 326 327 330 338 339 337 332 329 331 332 338 341 344 347 348 348
287 288 285 301 300 294 297 303 304 303 302 301 304 309 312 314 316 325 326 335 340 345 346 343 334 332 328 333 340 346 346 349
288 290 297 301 303 303 302 301 302 303 302 302 303 306 310 311 312 324 325 328 335 339 344 347 347 346 344 345 345 346 346 347
287 293 294 299 304 302 301 300 301 303 305 303 303 307 308 309 309 319 325 326 331 336 337 340 343 344 343 344 347 349 339 348
288 291 294 298 300 299 300 301 301 302 304 306 304 307 306 306 307 309 320 325 329 331 333 336 341 339 339 339 342 343 346 345
287 293 293 294 298 300 299 299 301 301 302 305 306 307 305 304 306 307 310 324 326 328 330 333 338 336 337 338 340 341 341 347
296 301 300 298 299 301 299 300 302 302 302 303 307 308 308 304 306 309 311 321 325 327 330 334 336 336 338 341 342 339 337 336

GFSFLT2_sfc_thetae_045.txt.gz
Theta_e
300 306 307 300 298 301 290 285 287 294 292 299 305 315 322 325 327 328 327 328 332 336 336 337 339 340 340 340 341 342 343 344
299 304 306 305 303 294 289 286 282 287 290 295 299 301 312 323 324 327 329 329 330 335 336 336 340 341 342 341 342 343 344 344
296 296 298 298 299 296 297 290 291 283 290 297 299 303 305 317 323 325 329 329 329 334 337 337 339 341 341 341 341 343 345 345
290 299 299 298 299 293 296 290 287 288 294 302 303 304 303 307 318 323 329 330 331 334 336 337 336 340 341 341 341 342 345 346
288 290 296 293 295 296 296 289 287 293 296 301 301 303 306 306 307 318 325 329 332 334 334 336 336 338 341 342 342 342 343 346
282 284 289 287 289 292 292 290 291 293 297 300 302 302 304 306 308 311 324 327 331 333 333 336 336 337 339 342 344 343 344 344
286 288 289 288 288 290 292 295 294 295 294 298 299 301 308 311 307 308 321 327 331 332 333 335 336 336 340 342 345 345 344 345
284 288 289 287 292 294 296 299 296 295 296 299 312 316 319 318 310 310 324 329 331 333 333 334 335 336 338 341 345 346 345 345
279 287 289 290 295 297 300 298 298 294 297 309 315 318 319 322 320 314 321 328 331 333 334 335 336 337 337 341 345 347 347 347
279 284 287 295 300 300 298 298 299 301 308 317 319 321 322 324 325 326 322 325 331 334 335 336 337 337 338 341 342 345 347 348
281 282 294 295 296 296 294 294 299 299 304 313 322 322 320 319 325 328 332 324 325 331 334 335 337 338 338 339 341 343 345 347
285 283 287 293 297 302 303 289 300 300 301 306 315 310 308 314 323 327 335 338 329 327 331 336 337 339 338 338 339 339 343 346
284 284 291 297 298 303 290 290 299 300 299 301 302 304 311 315 322 325 329 336 344 341 331 328 330 340 338 339 338 341 342 343
287 287 287 298 300 293 294 300 299 299 300 300 304 309 311 309 317 323 324 331 337 342 342 340 331 335 335 337 340 342 343 343
287 289 297 298 300 301 300 298 298 298 299 303 305 307 308 308 307 312 323 327 332 334 339 342 342 342 341 341 347 343 343 343
288 291 293 297 300 300 301 300 301 301 301 302 302 306 306 307 307 307 313 323 328 330 332 335 338 338 337 338 342 344 343 342
289 292 295 298 299 301 302 302 302 303 302 302 302 305 303 305 307 309 311 318 325 326 328 331 335 334 335 339 340 340 341 342
287 295 295 295 299 302 300 301 302 301 301 303 303 305 306 304 307 309 314 318 324 326 327 330 333 333 335 339 341 337 337 337
295 299 301 302 304 304 301 302 303 303 303 302 303 306 307 304 307 309 311 316 322 323 327 330 332 333 335 338 338 335 332 335

GFSFLT2_sfc_thetae_048.txt.gz
Theta_e
299 300 302 297 294 297 289 285 286 295 294 301 305 309 318 322 326 329 330 332 335 337 338 338 338 338 339 339 339 340 340 341
297 300 301 299 301 292 289 284 281 288 289 298 299 305 310 317 322 326 330 330 333 337 337 339 340 340 340 340 339 340 341 341
294 294 294 295 298 295 296 291 287 283 289 299 301 306 307 310 322 325 328 329 332 336 338 339 340 341 340 340 340 341 342 342
288 296 297 295 293 294 295 290 287 288 293 301 303 304 305 309 315 326 329 330 330 332 335 338 338 339 340 340 340 341 343 343
285 288 291 290 292 289 288 292 295 292 293 305 301 302 303 305 309 315 323 327 330 331 332 336 336 338 340 341 341 342 344 343
279 284 287 285 289 290 286 284 291 294 298 300 302 302 304 305 307 307 311 325 329 330 330 334 337 338 340 341 342 342 343 344
285 287 288 287 287 289 287 288 287 295 294 297 301 302 304 311 312 311 311 312 325 329 331 333 336 337 340 341 342 342 342 343
283 288 288 287 290 291 291 291 292 294 294 302 311 317 320 321 323 323 317 311 318 329 332 333 336 337 339 341 342 343 342 342
278 285 286 286 291 294 295 296 296 293 297 305 315 318 316 317 321 324 326 317 315 328 332 334 336 338 337 340 343 343 342 343
278 283 281 292 300 300 295 296 297 298 301 316 319 319 318 317 316 323 329 327 326 330 333 335 337 338 339 341 343 343 343 344
280 281 287 295 295 294 294 292 298 296 298 306 313 318 318 317 318 323 329 335 325 332 333 335 337 338 338 341 342 344 344 345
285 281 285 292 296 300 301 289 298 297 297 300 315 311 310 311 317 324 330 337 333 334 334 334 335 337 338 339 341 344 345 347
281 283 288 294 295 301 292 290 298 297 297 301 303 306 309 309 311 318 327 333 340 333 333 335 337 337 337 339 339 344 347 349
284 284 286 295 298 292 294 297 298 297 298 299 302 306 308 309 310 313 321 328 334 340 340 337 337 338 337 338 342 343 345 347
287 287 294 296 297 298 299 297 298 299 301 301 301 304 306 309 312 316 319 325 330 334 337 339 343 345 344 345 346 344 342 343
287 291 294 297 300 300 301 300 302 303 302 302 301 303 305 309 311 315 320 323 326 329 331 334 336 338 339 343 348 347 345 344
288 293 296 299 300 301 302 303 303 304 304 303 303 302 305 307 310 310 316 322 325 326 329 332 335 337 341 344 344 343 344 347
288 295 295 297 301 304 302 301 303 303 303 305 305 303 305 307 310 309 310 317 322 326 329 332 334 336 338 342 342 341 341 341
294 298 299 300 301 302 301 303 303 303 304 304 306 305 305 306 308 310 310 314 320 324 327 329 333 334 334 335 337 337 336 338

GFSFLT2_sfc_thetae_051.txt.gz
Theta_e
302 304 305 302 298 304 297 298 295 298 304 311 314 316 319 323 330 334 337 338 339 341 343 345 346 347 348 350 350 351 349 354
300 303 304 304 307 297 298 290 290 296 298 301 311 313 316 319 325 332 337 339 340 341 342 345 346 348 349 350 350 351 351 353
298 299 299 300 300 302 302 299 292 291 297 309 312 317 317 319 323 328 335 338 340 342 344 345 346 347 348 349 350 351 351 352
292 301 302 300 300 302 297 297 299 299 298 310 315 317 319 320 323 327 333 338 340 341 344 344 346 347 347 348 347 350 351 352
287 295 297 296 297 298 300 300 299 294 297 313 315 315 316 316 320 324 332 336 339 339 342 344 346 348 347 348 346 348 351 349
284 287 291 290 293 295 296 298 300 302 303 308 310 313 316 316 317 317 323 333 337 338 343 346 347 348 349 348 348 348 349 349
288 289 290 289 290 292 292 297 297 303 304 310 313 315 317 315 321 325 325 322 333 338 342 344 347 349 350 350 351 350 350 350
285 289 290 289 292 293 294 296 296 298 300 309 320 322 321 326 328 329 331 333 331 329 340 342 344 347 348 350 351 352 351 351
281 289 289 287 293 294 297 300 300 298 305 311 316 322 322 323 325 326 329 332 336 336 329 342 342 347 347 349 352 352 352 353
282 284 280 295 303 301 299 299 301 302 305 309 320 325 325 319 317 323 329 332 335 339 334 338 342 343 348 350 352 351 352 353
281 284 290 296 298 297 298 297 301 301 304 309 317 326 326 316 314 316 325 331 338 343 337 341 345 348 349 350 351 351 351 352
283 281 284 292 297 301 302 295 299 300 301 306 321 318 313 313 316 318 328 333 342 341 339 344 348 348 347 347 350 350 351 353
283 281 287 292 296 303 293 294 299 299 300 304 307 309 311 315 320 325 332 334 346 343 345 347 349 347 348 349 349 351 353 353
285 282 282 294 296 296 298 302 301 300 301 303 305 308 310 315 319 323 326 335 341 344 342 346 349 349 349 349 354 357 358 357
289 288 295 298 297 301 305 304 303 301 303 303 303 304 309 311 314 319 324 332 339 343 344 348 348 349 348 352 355 357 358 359
289 293 295 297 300 303 304 305 305 305 304 304 303 304 306 310 312 313 320 329 338 342 342 343 350 352 355 356 355 354 355 357
290 293 297 299 300 302 303 306 305 305 305 305 304 304 306 309 313 314 316 325 333 337 339 341 346 347 349 352 357 354 353 352
288 293 295 296 300 302 303 304 306 304 303 305 306 305 307 307 313 316 318 324 325 325 334 339 342 341 342 344 346 349 351 353
293 297 298 299 301 301 302 305 307 306 305 304 306 306 307 308 313 314 318 321 323 322 324 329 336 334 333 336 344 344 342 345

GFSFLT2_sfc_thetae_054.txt.gz
Theta_e
306 309 309 306 302 307 302 304 300 302 304 311 318 320 323 325 330 335 339 341 343 345 346 346 348 352 353 357 356 358 355 362
304 307 308 307 311 301 302 295 294 300 302 302 312 316 320 323 325 331 337 341 343 345 347 348 348 350 352 353 356 358 356 358
301 301 301 303 303 305 305 302 297 296 301 311 312 315 319 322 325 329 335 340 342 345 347 348 349 349 351 352 353 354 358 359
294 303 307 305 304 305 299 300 302 302 302 314 314 316 319 322 325 328 332 338 342 344 346 348 348 349 349 350 351 353 358 361
290 295 301 300 304 306 305 306 302 299 302 315 315 318 319 320 324 328 331 334 340 343 345 346 348 349 349 350 350 352 356 354
287 291 294 294 299 301 302 299 301 303 307 311 314 315 319 321 324 325 329 334 338 341 343 347 350 354 354 350 351 350 352 352
292 292 292 293 293 296 296 301 300 304 306 312 314 315 318 321 323 323 324 325 332 337 342 350 351 356 356 352 354 353 357 352
289 292 291 290 293 295 296 298 300 303 304 315 317 322 324 323 327 328 329 332 333 334 342 345 348 353 356 357 356 356 359 357
286 290 290 287 293 296 298 300 301 299 307 315 316 320 325 327 329 329 331 335 338 340 340 340 346 351 353 359 358 358 361 361
286 289 280 291 298 301 300 302 304 306 309 314 318 324 330 329 327 329 331 333 338 341 343 346 341 345 352 354 361 361 362 361
285 285 288 293 301 301 300 301 307 308 311 314 318 326 330 327 328 331 332 335 338 342 344 348 349 344 349 352 356 358 360 362
287 282 281 291 296 301 304 296 305 307 309 312 319 314 320 325 329 331 334 338 340 345 348 349 350 342 345 349 352 358 360 362
286 284 289 295 295 297 291 297 303 305 308 313 318 317 320 318 320 325 330 337 346 350 348 348 348 342 351 352 353 357 358 358
287 284 283 297 292 291 298 304 303 304 306 306 311 312 311 312 313 317 326 339 348 348 348 347 349 349 355 357 358 360 360 360
291 292 297 298 295 299 304 303 305 304 305 305 305 306 308 310 313 314 323 331 344 347 349 350 352 353 352 362 362 361 362 363
290 296 295 297 300 300 303 304 307 306 305 307 305 307 307 308 313 315 320 319 328 343 345 348 354 354 356 359 360 360 359 360
290 293 294 297 298 301 304 306 306 307 305 306 306 307 307 308 313 317 320 322 322 324 338 340 345 347 351 356 359 357 359 359
287 292 294 295 300 302 303 304 307 306 305 307 307 307 308 308 313 318 320 321 322 324 326 332 335 341 346 352 354 358 355 355
292 296 297 298 300 302 301 304 306 306 308 306 308 309 309 309 314 319 321 322 324 324 324 329 331 332 338 345 351 353 353 358

GFSFLT2_sfc_thetae_057.txt.gz
Theta_e
307 309 309 307 304 309 304 306 302 304 306 312 320 323 327 327 332 334 339 341 343 343 344 346 349 353 354 358 362 364 359 364
305 308 309 308 312 302 303 296 296 302 305 304 309 316 322 325 328 332 339 341 343 345 345 346 347 350 355 358 361 361 362 364
304 303 302 304 304 306 307 304 298 298 303 315 313 314 318 323 327 330 336 339 342 345 347 348 349 349 351 354 358 359 361 363
298 305 307 305 304 304 301 301 304 303 304 317 317 316 318 322 326 328 332 337 341 343 346 348 349 349 350 351 351 357 361 364
293 298 302 301 304 306 306 306 303 300 303 317 318 317 319 319 322 327 330 334 339 341 343 347 349 351 350 351 351 353 359 358
290 294 297 297 300 304 304 300 301 303 307 313 315 315 318 321 323 326 331 334 335 340 343 347 351 356 356 351 352 352 353 354
295 296 296 295 297 301 301 304 301 305 306 312 316 318 320 322 324 325 327 330 334 337 346 354 355 358 358 354 357 355 356 355
292 295 295 293 295 297 299 301 302 304 304 314 316 320 321 321 324 324 326 328 330 337 341 345 349 357 360 359 358 358 359 356
289 293 293 289 293 295 297 300 301 299 307 313 314 316 321 324 326 327 331 332 335 337 337 341 345 352 356 361 360 361 361 362
289 290 282 294 299 299 297 299 303 305 307 310 313 317 321 332 331 332 333 335 337 339 341 343 343 346 351 356 363 362 362 365
287 287 291 293 298 300 295 298 306 305 308 310 313 316 318 327 333 334 337 339 340 342 343 346 347 347 348 353 362 362 364 363
289 285 282 292 301 302 303 296 308 312 308 310 311 308 314 327 330 332 336 340 343 345 347 348 350 350 349 346 356 361 363 364
288 287 290 300 301 301 290 295 301 310 312 314 313 318 321 322 323 327 331 338 342 349 349 351 354 352 353 349 353 361 365 367
290 286 284 302 300 293 297 297 297 306 309 310 314 314 315 317 317 319 325 326 333 347 352 354 355 355 358 356 357 366 366 367
292 292 301 301 300 305 302 297 298 306 307 308 310 311 310 311 315 318 320 320 327 339 355 357 356 354 358 358 367 367 368 368
293 297 296 298 301 301 300 298 302 307 308 308 308 311 308 312 314 318 319 319 323 330 337 348 352 357 361 363 369 369 368 368
290 294 294 297 299 299 300 303 307 309 308 307 307 309 309 309 312 319 320 320 322 323 325 330 336 340 346 354 366 361 365 364
287 293 293 294 298 300 300 304 305 306 307 308 309 309 310 310 314 320 319 321 320 320 322 323 326 327 333 339 354 360 357 359
292 296 297 298 300 300 300 304 305 304 305 307 309 310 310 312 317 318 319 318 320 320 321 323 325 325 328 333 339 358 359 359

GFSFLT2_sfc_thetae_060.txt.gz
Theta_e
308 308 308 306 303 307 301 303 300 303 306 310 314 318 327 328 332 332 330 334 341 343 344 346 347 347 350 353 355 357 356 358
306 308 308 305 309 301 303 294 294 300 304 304 310 314 322 326 327 329 331 331 336 344 344 347 348 350 350 355 355 358 358 359
303 303 301 303 302 304 304 303 297 296 301 315 316 315 319 327 329 328 330 334 337 340 345 346 349 350 350 351 357 359 359 358
297 304 307 305 303 303 299 299 302 302 302 316 318 318 318 320 325 333 335 335 335 333 336 346 347 348 351 351 353 358 360 359
293 298 302 301 303 304 303 303 301 299 301 315 317 319 320 319 320 333 331 332 332 334 339 345 346 348 350 351 351 356 360 358
290 295 297 296 299 301 301 298 298 300 304 312 315 317 319 320 323 325 332 335 335 338 345 347 348 349 350 350 352 353 357 357
294 295 296 296 296 298 298 301 299 302 304 309 314 316 318 323 325 326 327 333 332 339 343 347 350 351 352 352 352 353 354 355
292 296 296 294 296 297 298 300 301 303 304 313 315 319 318 321 324 329 329 328 335 339 343 345 352 353 354 353 353 354 353 354
288 294 294 290 294 295 297 299 300 299 305 311 310 314 319 321 323 327 334 334 337 340 342 338 338 345 355 356 356 356 356 356
289 291 282 295 301 300 297 299 300 301 303 306 309 312 317 320 324 324 333 337 339 338 341 343 340 341 357 358 359 359 356 358
286 286 290 293 298 299 299 297 302 304 307 310 310 310 313 324 329 327 325 331 340 340 342 348 349 350 353 357 357 356 359 357
289 284 282 292 299 303 302 293 305 306 305 306 312 305 308 320 324 325 327 331 337 341 343 346 349 350 349 350 359 356 356 361
289 286 290 298 301 303 289 292 303 305 304 304 306 311 316 319 319 321 323 327 331 334 340 347 355 353 350 350 350 361 360 359
290 286 283 302 301 294 300 304 304 303 304 303 307 311 314 315 317 318 320 321 324 328 338 353 360 359 353 353 354 360 365 362
290 291 302 303 301 304 304 303 303 303 304 304 304 309 312 312 315 317 319 320 322 324 330 334 342 352 358 359 361 360 368 362
291 298 295 299 303 303 302 302 304 305 303 302 305 309 310 312 313 314 319 320 320 322 321 325 329 337 345 349 363 364 359 364
290 294 294 298 298 298 300 301 302 303 306 307 308 309 310 311 313 314 319 319 321 321 319 319 324 331 335 339 346 360 364 364
287 293 292 293 298 299 297 298 300 304 305 308 309 309 311 311 313 317 317 318 321 319 318 319 321 323 328 333 335 346 365 363
291 295 296 298 298 299 297 300 303 303 305 307 309 310 311 312 314 315 315 316 317 319 319 319 319 319 323 328 330 337 347 364

GFSFLT2_sfc_thetae_063.txt.gz
Theta_e
304 303 303 299 295 299 292 294 290 294 298 304 307 323 328 325 325 326 335 335 336 337 337 337 339 341 343 344 344 348 348 344
301 302 302 298 300 292 292 285 284 292 294 297 302 304 322 322 325 331 334 337 337 337 339 339 340 342 343 346 346 348 349 348
296 293 294 296 293 293 293 291 288 287 292 303 305 308 319 322 327 331 328 332 336 338 336 336 337 341 343 346 346 347 348 351
290 297 300 297 294 294 289 289 292 293 295 308 308 311 316 325 328 331 328 330 335 335 333 334 331 341 342 345 348 349 350 349
287 290 294 293 296 296 294 291 290 288 293 308 311 311 314 317 324 330 330 333 332 332 334 334 333 334 343 344 349 350 351 350
281 286 291 290 293 295 292 286 288 291 294 301 307 309 312 315 325 328 329 330 330 329 328 328 332 334 342 344 346 352 352 352
289 292 292 292 292 293 291 291 286 292 295 300 305 307 311 316 324 327 329 331 330 329 328 337 335 339 343 345 345 348 352 353
289 293 292 291 293 294 294 294 293 294 295 304 306 308 310 313 318 323 327 326 332 333 331 337 335 334 343 344 346 346 349 352
283 291 291 286 292 293 294 295 293 290 295 303 306 305 308 320 323 323 324 324 326 333 334 335 338 343 340 343 346 347 347 351
283 286 279 290 297 298 296 298 299 297 303 304 305 310 313 317 319 320 322 324 327 330 330 335 337 340 343 342 342 344 346 347
281 281 287 290 294 296 293 294 301 300 302 303 306 310 310 313 317 317 319 322 325 327 329 331 337 337 340 340 341 341 346 348
286 280 278 288 298 300 299 287 300 300 300 301 304 299 303 310 314 316 319 321 320 323 327 330 336 342 341 338 341 341 348 350
285 283 286 296 300 301 287 288 300 300 299 300 298 301 306 311 311 316 318 319 322 323 323 328 336 336 348 343 344 346 353 353
287 283 281 298 299 291 295 298 299 300 300 299 301 304 306 309 311 313 315 319 320 319 322 326 329 330 333 340 344 348 351 352
288 288 294 297 296 299 299 296 297 297 299 300 300 302 305 306 309 312 315 318 319 319 320 322 323 324 328 330 334 337 348 353
288 294 293 294 298 299 298 298 299 299 300 300 301 303 305 307 308 312 314 317 319 317 317 318 321 322 323 326 329 331 340 350
289 293 292 296 295 298 298 299 298 299 300 302 304 306 306 306 308 312 312 318 318 318 318 318 319 320 321 322 326 327 334 351
286 292 292 292 296 299 297 296 298 299 301 303 305 304 307 308 309 312 315 316 315 318 317 317 318 317 318 319 321 324 327 343
292 295 296 297 298 299 297 298 299 300 301 301 304 307 309 309 308 314 315 313 314 316 315 315 316 314 315 316 319 322 324 330

GFSFLT2_sfc_thetae_066.txt.gz
Theta_e
300 298 297 294 292 295 289 287 287 290 295 301 304 315 321 323 326 328 331 330 334 333 334 337 337 337 339 344 343 343 342 343
298 299 298 293 297 289 288 283 282 288 290 293 302 309 320 320 325 327 329 334 336 334 334 336 339 339 340 342 344 345 343 342
293 289 289 290 289 289 288 288 284 283 288 299 305 309 312 320 325 325 331 333 335 336 337 336 339 340 340 340 342 345 346 344
287 294 296 293 288 286 284 285 287 288 290 306 308 309 312 321 323 326 332 333 335 336 336 336 335 339 340 342 341 342 347 346
285 287 291 289 291 288 286 285 285 285 288 305 308 309 316 321 325 327 329 328 327 329 334 336 336 337 340 341 343 344 345 346
279 283 287 286 290 291 285 281 283 286 289 295 301 305 314 320 325 327 330 331 330 332 333 333 333 332 334 341 345 345 345 345
285 290 291 290 290 291 288 286 283 288 289 294 301 309 318 321 323 325 325 328 330 332 333 333 334 334 334 338 343 346 345 346
286 292 292 289 292 293 292 292 291 290 288 302 306 313 315 318 319 320 322 325 326 327 329 331 333 337 338 340 341 348 347 346
279 288 289 284 288 291 292 295 295 287 295 301 302 308 310 312 314 315 320 325 326 325 326 328 334 336 338 338 341 343 348 349
280 283 276 286 293 294 296 297 298 299 300 301 302 305 307 311 312 314 317 318 320 323 326 329 333 339 340 343 343 342 343 349
279 279 284 289 292 293 291 292 298 296 298 301 302 306 305 307 312 314 317 319 321 323 325 328 333 336 342 342 336 335 338 342
284 278 277 286 295 300 295 286 298 298 297 297 300 294 299 304 308 312 317 320 319 321 325 327 330 331 337 339 337 333 339 341
282 280 286 294 296 299 285 285 296 297 296 296 294 297 302 304 306 312 315 319 320 319 322 323 326 326 330 333 336 337 340 345
285 280 279 296 296 290 293 295 295 295 295 295 297 299 301 303 304 307 313 317 318 316 317 322 323 322 323 326 327 331 332 335
285 288 295 295 293 297 295 293 293 294 296 296 297 298 300 301 304 306 311 314 318 316 315 317 320 320 320 321 324 326 328 331
284 291 292 292 295 295 296 296 297 298 297 297 296 298 301 303 304 305 308 310 316 316 317 317 318 319 319 319 320 321 323 327
284 288 291 294 295 295 296 298 298 298 297 298 300 300 302 302 304 305 308 309 314 313 314 315 316 318 317 317 318 318 321 324
281 288 289 292 295 296 296 295 297 298 298 299 301 300 302 302 307 306 308 310 310 315 313 311 312 313 313 312 313 314 319 321
289 293 293 294 296 298 296 297 298 298 299 299 300 302 303 304 306 308 310 312 308 312 309 306 308 309 310 310 311 313 316 318

GFSFLT2_sfc_thetae_069.txt.gz
Theta_e
298 297 295 291 289 291 286 284 286 288 293 299 308 311 318 323 327 330 331 332 334 331 332 334 335 335 339 340 340 340 341 342
296 297 296 292 293 287 287 282 281 286 288 291 301 305 317 318 324 329 331 330 332 333 332 334 335 337 339 341 340 341 341 342
291 289 288 288 286 285 285 285 282 282 287 300 303 305 307 315 321 324 327 329 332 334 333 334 336 336 337 340 340 341 341 342
285 292 294 291 286 283 281 281 284 285 288 300 301 307 317 321 324 325 328 330 333 334 334 334 335 336 336 338 341 341 342 341
281 286 289 287 288 285 283 281 280 282 285 301 304 316 318 319 323 326 328 328 329 332 332 334 334 335 337 337 339 342 343 342
281 281 285 285 289 288 284 280 282 282 285 297 306 313 315 316 319 322 325 328 330 330 331 331 334 334 334 338 340 340 342 343
285 290 290 289 289 290 286 285 283 286 287 296 301 309 311 313 316 320 322 323 324 324 327 332 333 333 333 335 341 342 341 342
285 290 290 287 290 290 291 290 289 291 288 299 303 309 309 310 312 314 316 318 321 324 326 328 330 334 336 337 337 343 342 341
278 286 286 282 288 289 292 295 293 287 293 300 299 303 304 307 309 311 315 316 318 320 324 327 329 335 336 338 339 340 343 343
278 282 275 284 291 294 295 295 296 295 296 299 299 301 303 303 304 310 314 315 317 320 321 325 330 333 334 339 339 340 341 344
278 278 282 288 291 291 289 291 297 294 296 298 299 302 302 303 304 305 311 316 317 319 321 325 327 327 333 340 338 333 337 339
280 276 277 284 294 298 295 286 296 296 295 295 297 291 299 300 302 304 306 314 318 318 321 322 322 324 329 332 332 331 336 339
279 277 283 292 294 297 283 284 294 296 294 293 291 294 297 300 301 303 305 309 317 318 318 319 322 323 324 326 324 327 331 332
284 279 277 294 293 288 291 291 293 294 294 293 294 296 297 299 299 302 303 306 315 316 318 318 321 320 319 320 323 326 328 330
284 283 291 293 291 293 294 292 291 292 294 294 296 296 297 298 299 303 304 305 311 315 317 318 319 319 316 318 319 320 323 325
283 286 288 292 293 294 293 293 295 295 295 296 295 296 296 299 301 302 304 305 308 312 313 316 316 317 316 317 316 316 318 322
282 286 288 292 293 293 294 296 296 297 297 297 296 295 296 298 299 301 303 305 308 310 314 315 313 314 314 314 313 312 313 319
280 286 287 288 292 295 295 295 296 297 297 299 299 298 300 299 300 301 302 306 309 312 313 311 307 308 309 308 309 309 311 314
288 290 291 292 294 295 296 298 298 298 298 297 299 299 300 300 302 305 306 306 311 313 310 308 303 304 305 305 306 307 308 312

GFSFLT2_sfc_thetae_072.txt.gz
Theta_e
296 295 293 291 288 290 285 283 285 287 292 298 305 308 313 319 325 327 332 333 333 330 333 334 334 335 337 338 339 340 341 342
294 295 294 291 291 287 287 282 281 286 289 291 296 300 312 318 321 323 331 331 333 332 331 334 335 335 338 340 339 340 341 342
290 287 285 287 285 284 285 284 282 282 288 298 297 305 313 316 320 325 325 331 331 334 331 334 336 335 336 339 340 340 341 342
283 290 291 288 285 282 284 282 282 284 286 304 311 313 314 316 320 324 328 329 332 334 333 333 334 335 336 338 340 340 341 342
280 285 288 287 287 283 281 281 280 284 286 304 308 311 311 314 319 321 323 326 329 332 333 335 336 336 336 338 340 341 341 341
279 281 284 285 289 288 282 281 281 282 286 296 303 307 307 310 316 317 319 322 323 325 328 332 335 337 338 337 339 342 341 341
286 289 289 288 288 289 285 285 282 285 289 295 301 306 306 309 311 314 316 318 320 322 325 328 332 336 337 338 339 340 341 342
284 289 288 287 289 290 289 290 288 289 291 299 303 305 304 304 307 309 313 316 318 321 323 325 329 333 337 338 339 341 340 341
278 285 285 282 286 288 292 295 293 288 293 298 297 302 300 300 302 303 306 312 316 318 320 323 326 330 331 335 340 340 342 342
279 280 275 282 290 292 294 295 296 295 296 297 297 299 302 301 300 300 302 305 310 317 319 321 326 326 327 337 341 340 340 342
278 276 281 287 292 292 290 290 296 295 296 297 297 299 301 301 301 301 302 304 307 313 319 321 322 324 325 332 333 335 335 338
278 277 276 284 293 296 295 284 296 296 294 294 294 291 299 299 300 301 302 303 306 308 316 319 320 323 322 327 328 327 330 332
279 276 282 291 294 296 283 284 294 295 294 293 291 293 296 299 299 301 302 303 306 308 312 317 320 321 319 322 322 324 328 331
280 277 277 294 293 288 290 292 294 293 294 293 294 295 297 297 297 299 300 302 306 306 308 315 320 320 318 318 322 322 324 326
282 282 290 293 291 293 294 292 293 292 294 294 294 294 296 296 297 298 299 302 305 305 307 312 317 319 316 318 319 317 319 322
283 284 288 292 293 294 294 293 295 295 295 295 294 296 296 296 296 297 299 301 303 303 305 309 315 318 316 317 316 314 315 317
282 285 287 290 293 294 294 296 296 296 297 297 297 297 298 297 297 298 300 301 303 303 304 308 315 315 313 313 311 309 311 313
282 287 287 287 293 295 294 294 296 297 297 298 299 298 299 298 300 301 300 302 302 303 305 307 313 313 310 310 308 307 307 310
287 289 290 292 294 295 294 295 299 299 299 297 298 299 299 299 301 301 302 304 306 306 307 309 311 308 307 306 305 305 305 308

GFSFLT2_sfc_thetae_075.txt.gz
Theta_e
299 300 300 300 300 301 297 295 297 298 301 306 314 319 321 323 326 330 335 336 340 341 340 341 342 344 346 348 349 350 350 354
298 300 301 301 300 298 299 293 292 295 298 300 310 311 315 319 321 326 331 337 339 342 340 342 343 344 346 348 349 351 351 352
297 294 293 298 297 296 299 296 295 293 296 311 309 311 313 317 320 323 332 335 340 342 341 342 343 343 344 345 347 347 348 352
291 295 296 296 293 294 298 295 295 299 295 311 313 312 313 315 318 322 326 332 338 341 340 341 342 343 342 345 345 346 349 351
290 294 296 294 295 294 293 296 293 295 295 311 313 313 312 313 316 318 322 325 328 332 336 340 341 342 342 344 344 346 348 346
291 291 294 292 293 294 294 295 292 294 294 306 309 309 311 313 315 316 318 319 322 324 328 331 337 342 344 343 344 346 346 346
293 294 294 293 292 293 292 293 293 294 297 304 307 309 310 312 313 313 313 316 318 319 322 326 330 334 340 344 345 345 347 346
290 292 292 291 293 293 293 293 294 294 297 306 308 310 309 307 309 308 309 311 314 318 320 320 325 328 330 335 341 344 344 347
287 291 291 287 292 293 294 298 297 293 300 304 303 306 304 303 303 304 305 308 311 313 317 322 323 326 325 328 338 344 345 346
288 288 282 291 297 295 296 299 301 301 302 302 302 303 305 305 305 305 305 306 309 311 314 319 323 324 324 329 333 341 346 346
287 286 288 291 294 295 294 294 301 300 300 301 302 304 305 306 306 305 306 307 308 310 313 317 321 325 325 325 329 328 333 339
289 284 282 291 297 300 300 290 299 301 299 299 301 298 304 305 305 305 306 307 308 309 312 314 318 322 325 323 327 328 326 328
289 287 289 295 298 301 288 292 299 300 299 299 298 301 303 304 304 305 305 306 308 309 311 313 316 320 321 324 323 325 326 325
289 287 284 299 297 293 297 299 299 299 299 298 300 301 302 303 303 304 304 305 306 307 309 311 313 316 319 321 326 325 323 323
292 292 298 300 298 300 299 297 298 299 298 298 298 299 300 301 302 303 304 304 305 306 308 310 311 314 316 321 324 323 319 319
291 295 297 300 300 300 300 299 300 300 299 300 298 299 300 301 302 303 304 304 305 305 306 307 310 312 314 320 323 321 319 316
293 294 295 297 298 300 300 301 300 300 300 299 300 300 299 300 301 303 304 306 306 306 306 307 309 311 313 317 321 317 317 316
293 298 298 297 300 302 300 300 301 300 299 301 301 301 300 300 300 301 303 305 306 307 307 307 311 313 314 318 318 315 314 315
298 300 300 301 302 302 301 301 302 302 302 301 302 302 302 300 301 302 303 302 302 303 304 306 305 308 312 314 309 310 312 312

GFSFLT2_sfc_thetae_078.txt.gz
Theta_e
304 306 307 309 305 311 304 306 303 305 309 316 321 323 326 324 328 332 337 343 344 345 345 347 348 349 351 353 356 357 356 359
302 305 306 309 312 303 304 298 297 302 304 308 314 316 319 319 322 330 338 341 344 346 346 347 348 350 352 354 355 357 356 357
302 301 302 304 305 306 307 305 300 298 303 316 313 314 315 317 320 326 330 337 340 343 346 347 348 349 350 352 354 355 356 357
299 301 302 303 303 306 302 301 304 304 305 317 318 315 317 317 319 322 326 328 331 336 344 347 348 349 349 350 350 353 354 357
296 299 301 302 302 304 304 306 303 300 303 318 319 318 319 317 317 319 321 322 326 329 332 337 339 348 348 349 349 350 353 351
296 298 302 298 299 301 303 302 303 304 306 312 314 316 319 320 318 316 318 320 322 323 325 328 334 338 341 348 349 350 350 352
299 299 299 298 297 298 300 302 301 303 307 310 314 315 316 318 318 317 317 317 319 320 322 324 325 330 334 338 344 352 351 350
296 297 297 296 297 297 297 298 301 304 305 313 316 316 313 313 313 312 313 314 317 319 322 322 324 326 326 328 336 347 351 351
293 295 295 292 297 298 299 300 301 300 307 311 311 311 310 310 311 310 310 311 313 315 317 320 322 325 325 326 332 334 345 352
296 294 286 297 301 300 299 302 303 306 307 309 309 310 311 313 312 312 312 312 313 313 315 318 320 321 327 329 331 330 330 332
292 291 294 294 298 298 299 299 304 305 306 306 307 309 310 312 312 311 312 313 313 314 316 319 319 321 324 326 332 330 327 328
293 289 287 297 301 304 303 296 305 305 305 305 306 301 308 310 310 311 312 312 313 314 315 317 318 319 321 323 325 329 330 329
293 291 294 300 302 304 291 297 305 306 306 306 304 307 308 310 310 311 311 312 312 314 314 316 317 317 318 321 322 327 329 330
295 292 289 304 302 297 304 306 305 304 304 304 305 306 307 308 309 309 310 310 311 311 312 315 317 316 316 318 323 327 328 328
297 299 304 306 305 307 305 303 304 305 304 304 303 304 305 306 308 309 309 310 311 311 311 313 315 316 315 318 320 323 326 326
296 300 302 305 305 305 304 304 305 305 304 304 303 304 305 306 307 307 309 309 311 312 311 312 314 315 316 318 319 320 323 324
299 301 300 304 305 305 304 304 304 304 304 303 303 304 305 305 307 307 307 307 307 309 308 306 309 311 315 318 320 318 320 321
297 302 302 301 306 306 304 304 304 303 303 304 305 304 303 303 303 303 304 306 307 306 308 309 309 310 313 313 313 316 318 318
302 306 304 305 306 307 305 305 305 304 304 304 305 304 304 303 303 303 304 305 305 304 304 306 306 307 310 312 311 308 310 315

GFSFLT2_sfc_thetae_081.txt.gz
Theta_e
315 317 313 311 308 313 307 309 304 309 315 322 325 326 324 326 333 336 335 341 341 344 342 346 346 347 351 355 358 360 359 363
308 310 313 311 315 306 307 300 299 306 310 312 317 320 320 320 325 333 342 340 339 341 345 346 346 347 350 354 356 359 360 360
307 306 307 308 308 310 310 308 302 301 308 321 318 319 317 319 322 325 330 335 338 344 346 344 348 350 350 352 355 357 359 361
303 308 309 309 310 310 304 304 307 305 308 321 322 322 319 318 321 324 328 329 330 335 338 341 342 344 347 351 352 355 358 363
300 303 307 305 308 310 311 310 306 303 307 321 323 322 320 317 318 321 323 329 327 325 327 332 338 345 344 342 348 352 356 357
298 302 305 303 304 307 308 304 306 307 310 316 319 321 321 319 321 319 321 322 324 324 325 328 329 334 340 343 348 346 351 354
303 303 305 305 304 304 305 307 304 310 311 316 319 320 321 323 321 320 321 321 320 322 323 326 328 328 330 337 344 348 352 351
300 301 302 300 301 302 304 304 306 310 309 319 319 320 318 318 318 317 318 319 320 323 325 323 325 328 329 332 336 342 342 346
297 300 299 296 300 302 303 304 307 307 313 317 315 314 315 315 316 315 315 316 317 319 320 323 324 326 326 330 334 332 333 333
296 300 290 301 305 304 303 304 308 312 314 316 316 315 316 317 316 315 316 317 317 317 319 321 322 323 326 329 333 331 330 330
294 294 298 299 301 301 302 303 307 310 311 312 313 314 313 315 315 315 315 316 317 318 319 322 321 322 324 327 330 334 332 331
297 293 290 300 304 307 306 299 308 310 310 309 310 305 310 313 313 313 315 315 315 316 318 319 320 321 321 322 325 327 329 331
296 294 298 305 305 306 294 301 309 310 310 308 307 311 312 313 312 313 314 314 315 316 316 318 320 320 320 321 321 325 327 330
298 295 292 307 304 299 308 311 310 310 309 308 309 309 310 310 311 312 312 313 314 315 315 317 318 319 319 320 322 323 324 326
300 302 309 309 309 312 312 309 308 309 308 308 307 308 308 310 310 311 312 313 314 315 316 317 319 319 318 320 322 323 322 323
300 305 306 307 309 310 309 308 309 309 308 307 307 308 308 309 310 311 312 311 312 312 312 313 314 315 316 318 319 320 322 322
301 304 305 307 309 309 307 308 307 308 307 306 306 306 308 308 310 310 310 310 310 309 309 309 311 311 312 316 316 316 317 319
299 306 306 305 309 310 307 306 307 306 306 307 307 307 307 308 308 309 308 309 309 309 309 309 308 309 312 313 312 311 313 314
306 309 309 308 308 310 308 308 308 307 307 306 308 308 307 307 307 306 307 307 307 308 308 307 308 306 307 309 309 309 308 311

GFSFLT2_sfc_thetae_084.txt.gz
Theta_e
313 315 315 310 307 314 307 308 303 310 316 323 325 323 326 329 335 336 339 341 341 343 344 347 342 347 351 356 359 361 360 363
313 316 317 312 314 305 307 299 298 308 311 312 319 319 321 323 325 327 330 339 339 341 340 347 344 347 353 358 359 360 360 362
312 309 308 309 307 309 309 307 300 302 308 321 321 321 320 321 324 326 327 332 337 337 335 343 346 344 350 356 358 360 361 362
304 310 313 312 310 310 304 304 307 306 308 322 322 321 321 320 323 327 329 327 332 335 334 333 337 346 347 345 353 358 360 362
301 305 309 306 308 310 310 310 305 300 307 322 322 320 320 319 321 325 327 329 330 330 330 331 331 334 340 347 349 352 359 361
296 301 305 303 306 309 308 303 305 308 311 316 319 319 319 318 320 322 324 326 327 328 328 330 330 331 334 340 343 348 351 347
304 305 306 305 305 305 305 307 305 310 311 315 319 320 321 321 322 321 320 322 323 323 324 328 329 328 332 336 337 343 346 347
301 303 304 303 305 306 306 307 308 311 311 319 319 322 320 320 319 318 319 320 322 324 324 324 326 327 330 333 333 336 338 338
298 301 300 298 302 302 304 307 312 308 312 318 316 316 316 316 317 316 316 317 319 320 322 323 323 328 331 333 333 331 332 334
297 300 291 302 307 306 304 306 313 315 316 316 316 316 317 318 317 316 317 317 317 318 320 322 321 324 330 333 335 334 333 333
294 295 299 300 303 302 302 302 313 315 316 314 315 315 313 316 316 316 316 317 317 318 320 324 321 325 328 328 332 331 331 334
297 292 290 300 305 308 306 299 310 314 314 314 313 306 308 314 315 314 315 316 315 317 318 319 321 321 322 321 326 325 327 331
296 294 298 306 306 307 295 301 311 314 313 312 309 312 314 315 314 315 315 315 315 316 317 318 320 319 321 322 321 323 325 327
296 294 292 308 304 299 309 312 311 313 312 312 312 313 313 313 313 313 313 314 315 315 316 318 320 319 319 321 324 325 326 326
301 302 309 311 310 313 312 311 311 311 311 311 309 309 310 311 311 312 313 314 314 314 316 318 317 316 315 319 322 322 321 323
302 307 308 309 311 312 312 311 310 311 310 308 308 309 309 311 311 312 313 312 312 312 312 313 314 314 314 316 319 318 318 319
301 305 306 308 309 310 309 310 310 309 309 308 308 308 309 310 311 310 311 311 311 310 310 310 311 311 312 314 314 311 312 314
299 306 307 307 311 312 309 307 308 308 306 307 307 309 309 309 309 310 309 310 310 310 310 309 309 309 309 310 310 309 308 308
307 310 310 310 309 311 309 308 308 308 309 308 309 309 309 308 309 305 308 308 308 308 308 309 308 307 307 308 308 307 305 307

GFSFLT2_sfc_thetae_087.txt.gz
Theta_e
308 309 306 302 300 305 297 301 295 306 311 318 322 323 328 329 329 326 327 329 330 331 340 343 338 343 346 348 349 349 350 350
307 309 310 305 307 298 296 292 290 305 306 309 316 316 321 322 325 328 332 336 333 337 339 340 341 345 348 350 350 351 351 353
305 301 302 303 301 301 299 299 292 298 305 318 315 317 317 321 324 327 329 334 337 338 336 338 338 343 347 349 352 352 352 353
300 308 310 306 303 301 294 294 299 303 304 321 318 318 320 321 325 326 329 329 333 335 337 338 336 337 340 341 344 347 354 354
295 302 304 299 302 301 300 298 297 298 304 319 320 319 320 321 323 325 325 326 328 329 330 332 333 336 337 339 340 344 343 349
293 295 298 297 302 302 298 293 300 306 307 313 315 315 317 319 322 323 324 325 326 326 327 328 331 333 334 336 340 341 342 339
301 303 303 301 301 303 298 306 304 306 308 314 315 315 316 318 319 320 319 319 321 322 324 327 329 331 333 334 337 338 338 339
299 303 301 299 303 304 302 310 309 310 309 318 318 318 318 317 317 317 319 319 319 321 321 322 325 326 330 329 332 336 334 336
291 299 298 295 300 300 302 312 311 305 311 318 316 314 313 312 313 313 315 315 315 316 317 318 322 327 328 328 331 331 332 332
292 295 288 296 301 303 302 313 313 312 313 316 313 312 313 313 311 311 312 313 313 314 313 314 317 321 328 330 331 331 330 331
289 288 296 298 300 300 303 308 315 313 314 312 313 311 309 313 313 311 310 310 312 315 315 315 315 317 319 322 320 320 322 326
292 287 286 295 302 304 303 302 315 312 310 310 310 301 303 309 311 310 310 310 310 313 314 313 313 316 316 317 317 317 319 320
291 290 296 302 303 303 292 298 311 312 311 309 304 306 308 310 309 310 310 309 311 312 312 313 315 315 315 314 314 317 318 321
292 290 288 308 306 300 303 305 309 310 310 307 307 309 309 309 308 309 309 310 311 311 311 311 312 311 311 310 314 315 315 315
298 296 304 307 306 308 308 306 306 305 308 308 307 306 307 306 307 309 308 308 309 309 309 310 310 309 306 308 311 311 310 310
299 304 305 307 308 309 309 306 308 306 305 305 304 305 305 306 306 307 306 305 307 306 306 305 307 307 307 308 308 306 305 306
297 302 304 306 308 307 307 309 308 308 307 306 305 305 305 306 305 305 305 305 305 304 305 303 304 305 305 305 305 303 303 304
294 302 301 303 307 308 306 305 306 305 304 305 306 305 306 304 305 305 304 304 304 304 303 302 304 302 302 303 303 301 300 301
302 307 306 307 308 310 308 306 306 305 305 303 306 306 306 304 303 303 303 303 302 302 302 302 302 301 302 303 302 301 300 300

GFSFLT2_sfc_thetae_090.txt.gz
Theta_e
305 304 303 297 295 301 296 301 293 306 310 317 322 324 325 324 330 329 330 332 334 336 339 340 340 342 346 346 344 344 345 345
305 303 304 301 303 295 293 291 288 301 304 305 315 319 323 324 323 328 331 331 332 334 339 341 340 339 344 349 347 346 347 346
302 296 297 299 297 297 297 294 292 296 302 317 315 318 320 322 324 327 329 333 337 335 338 339 340 341 343 346 346 346 347 348
297 305 305 302 300 298 293 292 296 302 305 319 318 320 322 323 325 327 328 331 336 336 337 337 338 340 340 341 342 343 344 344
293 298 301 297 299 296 296 295 294 298 302 319 319 319 321 322 325 325 327 328 329 332 334 335 336 338 340 341 341 341 342 342
288 292 297 297 299 298 294 291 300 301 308 314 316 317 319 322 323 324 325 326 327 327 328 331 334 335 337 341 341 341 340 338
295 299 301 299 299 299 296 300 299 307 307 312 314 315 318 321 321 320 320 323 324 325 326 329 332 332 334 338 339 340 338 337
294 300 299 296 299 300 306 310 309 309 309 315 315 317 317 318 317 316 317 319 321 323 325 325 328 329 330 332 334 336 335 335
290 296 294 290 295 299 308 312 312 306 310 314 314 314 315 316 317 316 315 314 315 317 320 324 325 326 327 330 332 330 330 332
291 293 286 293 301 309 312 313 313 313 314 315 314 313 312 311 312 313 313 312 312 313 312 314 322 328 328 327 328 330 330 330
290 288 291 296 299 298 303 306 316 314 313 310 310 310 307 310 310 308 309 310 311 312 312 314 315 318 317 316 315 317 318 320
291 288 286 294 301 303 308 300 313 311 309 308 309 301 303 308 308 307 308 310 310 310 312 313 313 315 314 313 313 312 314 317
290 287 295 303 306 307 293 296 309 312 309 308 303 304 306 308 308 308 308 309 311 311 309 308 311 311 309 310 309 311 313 313
289 287 285 305 305 299 301 304 308 306 305 306 307 306 306 307 305 307 308 310 309 308 307 307 308 307 306 306 308 308 308 308
294 293 300 302 302 305 305 305 304 306 307 309 307 305 305 305 305 306 307 307 308 305 304 304 305 305 303 303 305 305 304 304
297 299 301 303 304 306 306 303 305 307 307 305 303 304 305 305 304 303 304 304 304 303 302 301 302 302 301 302 303 302 301 301
294 299 302 304 304 303 306 306 305 304 305 304 304 303 304 303 302 302 302 303 303 302 300 300 300 300 301 302 301 300 299 300
291 298 297 300 304 306 304 304 304 303 302 305 305 303 303 301 302 302 302 302 301 301 300 300 299 299 300 300 299 298 298 298
298 302 302 303 306 307 304 304 304 302 303 303 304 303 303 301 300 304 301 301 300 300 300 299 298 299 299 300 300 298 296 296

GFSFLT2_sfc_thetae_093.txt.gz
Theta_e
303 302 301 294 292 298 295 293 293 300 306 315 323 322 325 326 329 329 331 332 334 337 339 340 338 343 343 340 339 339 340 343
304 302 300 298 300 294 291 289 288 296 299 303 314 319 321 322 324 326 329 331 334 336 339 340 338 341 344 344 342 342 341 342
299 295 294 296 295 294 294 293 290 293 298 313 315 320 320 321 325 325 329 331 332 336 339 340 341 342 343 344 344 343 344 342
294 302 303 299 297 296 292 290 295 298 299 318 319 319 321 322 324 327 330 333 333 335 337 338 339 340 341 343 342 341 341 343
291 295 299 296 296 294 293 293 298 296 298 318 319 318 321 321 322 325 328 329 334 336 336 337 338 340 340 341 340 340 339 340
287 290 294 294 298 297 291 290 294 297 307 311 315 316 321 323 323 323 326 327 328 330 333 335 336 338 340 341 341 340 339 339
293 296 297 297 298 296 293 294 297 303 307 312 314 316 321 322 322 322 323 325 326 327 329 332 333 336 339 340 340 340 338 337
293 299 297 294 296 297 305 309 307 308 308 316 317 320 319 317 318 319 320 323 325 326 327 329 330 331 333 334 336 338 337 336
288 296 294 289 294 294 304 310 309 303 308 313 314 316 317 315 315 316 317 319 322 324 326 327 327 329 329 330 332 331 331 333
289 291 286 291 300 302 311 312 312 311 312 314 315 317 317 317 313 313 314 313 313 315 321 326 328 327 322 321 322 324 326 329
289 288 293 296 298 298 296 308 314 311 312 312 310 310 308 314 315 313 312 312 311 314 316 317 316 315 315 314 315 316 316 319
292 288 286 294 302 306 307 302 316 314 309 307 309 300 302 309 311 312 311 311 314 315 314 312 310 312 311 310 311 310 312 313
292 289 295 302 304 305 291 297 312 311 309 309 303 303 305 306 308 309 309 310 310 310 308 307 308 308 307 306 305 307 309 309
286 287 287 304 304 296 298 302 311 310 309 306 307 307 305 304 307 309 307 308 308 306 304 304 305 305 302 302 304 305 305 305
291 292 300 302 299 304 306 304 305 307 309 308 307 305 305 305 308 308 307 306 305 303 302 302 302 302 300 300 302 302 302 301
294 298 299 301 304 304 307 305 308 309 309 309 307 307 306 304 305 305 305 304 303 302 300 299 300 301 300 300 300 300 299 298
292 297 301 302 302 304 303 305 307 308 309 309 307 306 305 303 303 304 303 302 301 300 299 298 298 299 299 299 299 298 297 297
291 297 295 298 302 305 303 303 304 304 303 305 305 303 303 301 301 301 301 300 299 299 298 297 297 298 298 298 298 296 295 295
297 300 300 300 303 304 302 302 303 303 304 303 303 303 302 300 300 303 300 300 299 299 298 297 297 297 298 298 297 295 294 293

GFSFLT2_sfc_thetae_096.txt.gz
Theta_e
301 300 299 292 290 296 292 292 294 299 304 314 322 323 326 327 328 328 331 332 335 336 337 338 338 342 342 341 340 340 342 344
302 301 298 297 298 292 290 287 288 293 300 301 315 318 322 325 325 328 331 331 333 334 336 338 340 343 344 342 340 341 342 343
297 293 293 295 292 292 292 292 289 289 295 311 314 321 321 323 325 326 329 332 334 337 339 340 342 343 345 343 341 342 342 342
294 298 301 297 293 293 290 289 292 294 296 318 320 323 322 323 326 328 329 330 333 336 338 338 339 342 343 343 342 344 345 345
290 294 297 295 295 293 291 295 296 293 295 319 321 321 323 322 324 327 330 332 332 334 335 336 338 340 342 341 340 340 341 342
286 289 293 293 296 296 291 290 292 296 302 313 316 317 321 322 323 326 328 331 333 333 335 336 337 339 339 340 340 340 341 341
292 295 296 295 294 295 291 292 295 298 303 310 315 317 321 323 323 324 325 327 329 331 333 334 336 339 340 341 340 340 338 339
293 297 296 293 295 298 298 305 305 305 303 313 318 321 320 320 321 321 323 325 327 329 330 332 334 336 336 335 339 340 338 338
288 294 293 288 294 295 296 307 307 302 306 315 316 317 316 316 319 320 322 324 325 326 327 327 329 331 330 331 333 334 334 335
289 290 284 291 299 301 305 311 311 310 313 317 316 315 316 317 316 317 317 317 320 324 325 320 320 319 320 321 322 322 322 325
287 286 291 295 298 299 296 305 313 312 315 312 313 312 311 315 314 312 314 315 317 318 318 317 316 316 315 315 315 314 314 315
289 288 286 293 302 306 306 298 315 313 310 310 313 304 305 311 312 312 314 318 316 315 315 314 315 314 311 310 310 309 311 311
289 288 292 301 302 305 292 294 312 313 310 311 305 306 306 311 310 312 314 313 314 313 309 309 309 309 307 307 306 308 309 309
286 284 287 303 303 299 300 303 310 310 311 309 307 306 306 307 309 308 308 308 308 306 305 306 306 306 304 304 305 306 306 306
290 290 299 303 301 304 306 306 307 308 310 311 307 306 307 307 308 306 306 305 306 304 302 303 304 304 303 303 305 304 303 303
293 296 300 302 304 305 308 309 310 311 311 311 307 307 307 308 306 305 304 303 303 302 301 301 302 302 302 302 303 302 301 300
293 298 300 302 302 303 306 309 310 312 312 310 308 307 307 306 306 305 304 304 303 302 301 300 301 301 301 301 301 299 299 299
292 296 297 298 302 305 305 305 307 307 307 311 309 306 307 306 305 305 304 302 301 301 300 299 300 299 300 301 300 298 297 297
296 300 299 302 304 305 304 305 306 305 305 305 306 307 306 303 303 304 302 301 301 300 300 299 299 299 300 300 299 298 296 296

GFSFLT2_sfc_thetae_099.txt.gz
Theta_e
306 307 307 301 300 307 303 304 304 308 311 317 325 326 329 329 332 333 334 335 336 341 343 345 342 345 348 350 350 350 350 354
306 308 305 305 307 299 301 296 296 303 306 309 319 323 328 330 330 332 335 335 338 338 339 342 343 345 347 350 350 350 350 353
305 304 303 303 301 303 303 302 298 298 304 319 321 324 327 330 333 333 334 336 339 340 340 340 344 343 347 349 348 349 349 351
301 305 306 307 304 305 299 298 302 302 304 323 324 327 328 330 331 334 336 336 340 341 342 340 339 343 346 351 348 352 352 351
298 303 305 303 304 304 302 306 303 299 302 320 323 325 327 326 329 332 334 335 338 340 342 342 340 340 343 345 347 346 349 352
295 298 302 301 301 302 302 300 301 304 307 316 319 322 323 327 329 331 334 336 338 338 340 342 343 342 341 341 343 343 346 347
301 301 301 300 298 302 300 304 302 305 310 317 321 321 323 325 327 329 330 332 336 337 339 341 342 344 343 343 340 339 340 340
299 301 301 298 300 303 305 303 303 310 310 320 324 324 323 324 325 326 328 329 333 336 337 338 340 342 343 342 340 340 339 338
296 299 299 296 299 301 305 308 310 308 315 322 320 321 322 322 324 324 326 328 329 330 331 333 336 337 336 338 340 340 340 340
299 298 291 299 306 307 308 314 316 316 317 320 320 322 323 325 323 324 324 324 326 322 321 321 324 325 326 327 327 327 328 330
297 295 297 299 303 302 302 307 317 316 317 318 318 318 315 323 326 323 322 320 320 319 318 319 318 319 320 320 321 321 320 321
299 293 291 299 305 308 308 305 317 317 315 314 316 312 312 316 320 320 319 318 316 317 317 315 315 316 314 315 316 319 318 318
298 296 299 304 307 308 299 302 318 319 315 317 315 317 318 320 319 321 318 315 315 314 313 313 315 317 316 317 315 316 317 318
295 294 291 308 308 302 306 312 316 316 313 311 314 317 316 317 317 314 312 311 311 310 310 312 314 314 311 310 313 315 316 316
299 299 306 309 307 310 311 312 315 316 314 313 314 314 314 311 313 313 312 313 313 311 310 313 315 316 313 312 313 314 313 313
301 303 305 308 310 312 313 313 315 317 314 313 312 312 310 310 313 314 315 314 314 313 312 311 312 312 312 312 312 312 311 311
301 303 305 306 308 308 313 316 315 316 314 312 310 310 311 308 308 312 312 312 313 312 311 310 310 310 310 311 311 309 309 309
301 304 305 305 308 308 311 314 316 313 312 314 310 309 310 309 309 307 308 309 310 311 310 309 307 307 309 310 309 308 306 306
305 307 307 307 309 309 308 310 312 314 314 311 313 313 311 310 309 308 308 308 308 308 309 308 308 308 309 309 308 307 305 305

GFSFLT2_sfc_thetae_102.txt.gz
Theta_e
310 311 311 309 307 313 305 310 305 310 314 322 326 329 331 331 333 335 335 337 340 344 347 348 349 352 353 354 356 357 356 359
308 311 311 309 311 305 307 300 299 306 309 313 322 325 330 329 333 334 335 336 338 342 346 346 349 352 352 355 355 355 355 356
308 305 305 306 305 306 307 306 300 300 306 323 324 328 330 331 334 335 335 338 338 340 346 349 351 350 347 353 355 354 354 355
304 310 311 310 307 307 301 301 305 306 310 327 329 331 332 335 336 337 337 339 341 340 341 345 347 347 346 349 351 354 355 356
301 306 309 306 308 309 309 308 304 301 304 326 329 331 333 334 338 340 339 341 342 344 343 345 343 341 343 346 351 352 356 354
299 302 307 304 306 309 307 302 303 305 307 321 324 328 332 332 334 338 339 339 341 343 344 347 346 346 343 343 348 350 353 355
305 305 305 306 305 306 306 307 303 306 308 313 325 329 332 332 332 334 335 337 339 340 342 345 346 346 346 342 342 343 347 346
302 305 306 303 305 306 308 308 307 308 309 322 329 332 331 331 330 331 334 336 340 341 342 344 346 346 346 347 344 347 341 340
298 304 304 301 305 305 307 312 311 306 313 325 327 328 330 331 331 331 332 335 339 341 342 344 347 348 347 346 346 345 341 341
299 303 293 305 311 310 308 312 318 319 321 325 327 328 330 332 331 330 330 329 328 329 329 331 337 343 344 344 344 344 342 341
298 298 301 303 307 307 306 310 319 320 322 323 325 325 322 327 329 329 328 327 324 325 324 322 322 327 329 328 330 332 331 335
301 295 293 303 308 312 311 305 318 321 320 320 320 315 319 326 329 325 324 322 320 318 319 319 317 321 319 321 323 323 325 325
297 297 301 310 310 312 301 304 318 319 320 320 318 320 326 327 325 322 319 317 317 315 314 316 318 319 317 316 317 322 325 328
301 297 294 313 312 306 313 316 319 320 318 315 318 322 324 320 317 314 312 312 312 312 312 314 315 316 316 316 320 323 326 326
304 304 312 315 314 318 319 315 319 320 316 318 319 321 321 314 313 312 312 311 311 311 312 314 319 318 314 316 321 322 323 323
306 308 310 312 316 320 321 319 322 322 318 318 318 318 318 314 312 312 312 312 313 313 311 311 314 315 318 317 319 320 320 320
306 309 310 312 314 317 320 322 320 321 320 314 317 313 312 311 312 314 314 315 315 314 312 312 313 314 314 315 318 317 317 317
305 311 312 311 313 316 317 319 320 319 317 313 313 310 310 311 311 313 312 316 315 315 313 312 312 312 313 314 317 317 315 315
311 314 314 313 314 314 315 317 319 320 320 317 316 313 313 311 311 314 314 312 313 314 315 314 313 312 313 314 315 315 315 315

GFSFLT2_sfc_thetae_105.txt.gz
Theta_e
313 314 316 311 310 316 310 307 305 310 317 322 328 328 331 334 336 334 337 333 336 341 345 348 348 347 352 354 356 357 356 359
310 312 313 312 315 307 309 300 300 306 310 314 320 325 328 331 334 337 339 337 339 339 342 346 347 350 352 353 355 356 355 355
309 307 306 307 307 309 310 308 302 301 307 323 325 328 330 332 334 337 336 337 338 342 342 347 350 348 350 350 355 354 355 355
306 311 311 311 308 308 303 303 307 306 308 328 329 330 332 333 335 339 339 340 338 340 345 349 351 353 353 356 352 354 353 357
303 308 310 307 310 310 309 308 305 302 308 328 331 332 334 333 336 339 341 340 340 341 344 350 354 354 353 355 352 354 356 356
297 303 307 306 307 309 309 304 305 306 310 323 325 329 334 337 339 339 340 341 342 343 343 343 344 346 349 350 350 352 352 356
306 307 308 307 307 307 307 308 305 308 309 314 325 329 334 338 338 340 339 340 341 342 347 349 349 348 349 346 349 346 348 350
305 306 307 305 308 308 308 308 308 309 309 320 331 334 336 335 333 334 336 339 343 344 346 347 348 349 349 348 350 347 346 348
300 304 305 301 306 307 308 310 310 306 312 324 326 329 333 334 333 333 337 338 341 342 344 346 348 349 348 348 349 349 344 345
301 302 295 306 313 313 309 312 313 316 315 325 327 333 335 336 333 333 334 338 339 339 341 343 349 351 352 351 350 347 348 346
300 298 300 305 309 309 308 309 320 319 321 324 331 331 327 332 333 333 333 332 329 331 332 331 335 344 348 347 347 346 345 347
303 297 294 304 310 314 313 304 317 318 323 323 326 319 325 330 330 331 328 326 323 322 322 320 321 328 328 328 332 331 334 338
299 299 302 310 312 313 302 307 318 322 322 321 322 323 330 330 327 325 321 319 318 316 316 318 320 320 318 319 320 325 328 330
302 297 294 315 313 308 315 319 320 322 322 321 321 324 322 320 318 316 314 314 314 313 314 316 317 317 316 316 321 324 327 329
302 305 314 318 317 320 320 317 321 323 322 323 321 318 318 314 313 312 311 311 313 313 314 317 318 317 314 317 322 322 324 327
307 310 312 315 319 322 323 321 323 325 322 320 314 313 312 312 311 312 312 311 312 312 311 312 316 316 317 320 322 321 321 324
307 309 312 314 316 320 323 323 323 324 323 316 313 311 311 312 313 314 314 315 315 312 311 311 314 315 316 317 321 321 323 322
306 314 314 313 316 318 319 321 320 320 319 318 313 311 312 311 312 311 314 316 314 313 314 313 313 313 315 316 316 318 319 320
314 316 316 317 316 317 317 319 322 322 321 315 314 314 314 311 313 313 312 312 315 315 315 314 314 313 313 315 318 317 315 316

GFSFLT2_sfc_thetae_108.txt.gz
Theta_e
313 314 315 311 308 315 307 307 304 308 313 322 323 325 328 330 330 330 333 332 336 339 340 342 348 347 348 356 358 358 358 361
311 313 313 312 315 306 307 300 299 304 306 310 321 324 330 329 330 332 332 335 339 339 339 342 346 348 347 351 356 357 357 359
309 307 305 306 306 309 309 306 300 299 304 321 321 327 328 333 332 333 332 333 340 342 344 342 343 344 349 354 356 355 356 357
306 311 312 310 307 308 303 303 306 304 307 323 324 325 328 331 334 334 336 340 340 342 346 346 345 349 346 353 354 354 354 358
303 308 310 306 308 308 307 307 305 300 307 322 320 324 333 332 337 340 341 342 341 342 339 338 335 337 346 351 351 355 353 356
298 302 308 306 305 308 308 301 303 304 315 322 325 326 329 334 338 340 342 341 341 342 343 341 335 333 342 351 353 352 353 356
306 308 308 307 307 308 305 307 304 307 308 320 325 327 330 337 339 340 340 341 342 341 344 350 345 346 347 346 351 354 353 353
304 307 307 305 307 309 308 307 308 309 309 324 330 332 334 337 340 339 338 339 342 346 346 347 349 347 347 348 349 351 347 347
299 305 304 300 306 307 309 311 309 305 314 318 325 330 327 333 336 338 340 342 343 344 345 349 350 352 349 351 352 350 348 349
300 303 294 306 313 312 309 310 315 318 319 322 329 323 315 334 335 335 338 337 338 342 344 348 351 351 351 352 350 349 348 348
298 298 302 307 309 309 307 310 318 317 317 317 325 325 327 332 333 333 329 328 327 327 329 332 335 346 350 350 350 348 348 346
303 296 294 306 311 314 313 304 319 320 320 317 322 314 321 331 329 324 323 322 323 324 323 322 324 332 331 331 339 339 345 344
301 299 304 310 313 313 299 306 318 321 322 324 322 321 320 322 319 319 319 317 317 318 318 319 321 323 322 324 322 326 330 335
302 296 296 312 314 306 314 318 318 321 322 322 326 323 319 318 315 315 313 314 316 314 315 317 318 319 318 318 322 326 328 328
302 303 312 317 316 319 318 318 320 322 323 320 313 313 313 312 311 311 312 313 314 314 313 315 317 317 315 318 322 323 323 324
307 308 308 315 318 321 322 322 323 323 319 316 311 311 310 311 310 310 311 311 313 312 311 312 314 315 317 319 321 320 321 323
307 311 313 314 317 320 322 323 322 322 318 316 313 311 311 311 311 313 313 314 311 310 310 312 314 313 316 316 319 319 320 320
306 312 316 314 316 319 321 321 322 320 318 318 316 313 311 310 311 312 313 315 312 313 312 312 312 312 314 319 319 317 317 317
313 317 316 317 316 318 317 322 322 320 320 317 317 316 313 312 312 313 313 314 314 313 313 314 313 312 315 314 315 315 317 313

GFSFLT2_sfc_thetae_111.txt.gz
Theta_e
309 309 308 304 303 309 303 305 298 306 310 321 322 321 323 323 324 325 330 332 334 335 340 340 341 346 349 348 347 349 350 350
307 309 308 308 308 297 299 296 295 302 304 308 315 319 322 322 321 324 328 329 333 335 338 341 340 345 351 351 348 348 351 350
305 299 299 300 298 299 299 298 296 298 302 316 315 320 321 325 326 326 326 329 329 332 338 339 342 345 347 349 350 349 349 350
300 307 307 303 299 299 294 294 298 299 302 317 319 322 324 322 327 330 329 329 330 336 338 340 341 341 344 344 348 349 349 350
297 302 307 299 301 300 298 295 293 293 301 319 319 317 325 324 329 333 333 329 336 339 337 339 339 338 338 340 346 349 349 351
291 297 304 301 305 304 298 291 293 294 308 313 315 316 319 318 321 333 331 329 336 337 337 339 334 334 335 336 341 346 350 348
300 304 306 303 304 305 301 300 295 301 311 314 318 320 323 323 328 331 330 332 335 335 335 334 333 334 338 338 339 345 343 345
298 304 305 303 306 306 305 306 302 310 311 318 322 328 325 325 332 333 333 334 336 338 339 332 332 332 335 333 338 347 342 342
293 301 302 296 305 306 306 311 311 309 316 321 316 317 322 319 328 330 331 332 337 338 341 342 337 333 340 341 345 344 341 342
294 297 289 303 309 310 311 314 315 315 321 318 316 317 322 329 328 325 324 323 327 329 331 334 344 344 345 344 344 343 341 344
293 292 298 305 307 306 306 308 315 316 315 320 321 322 321 325 322 322 322 322 323 324 326 328 331 338 343 343 342 342 341 341
297 292 291 302 309 312 309 301 317 318 318 319 319 310 319 321 320 318 317 317 318 321 322 322 325 331 332 335 336 339 341 340
296 293 300 307 312 313 294 300 316 317 319 317 313 315 317 317 315 315 315 315 317 318 317 320 322 324 322 326 326 328 334 339
295 293 291 310 311 304 307 312 318 318 319 316 315 314 313 313 312 312 312 313 315 314 314 316 320 321 320 320 323 327 328 328
300 298 308 312 311 312 313 317 318 315 314 312 311 311 310 309 310 310 311 312 313 312 313 314 316 317 317 319 321 323 323 324
302 305 309 311 317 317 320 318 318 317 314 312 310 310 309 309 309 309 310 310 312 311 310 310 312 313 317 318 320 320 320 321
303 305 308 312 316 319 320 320 318 316 314 312 311 310 309 308 310 311 311 311 309 309 310 310 312 312 314 316 318 317 317 318
300 307 308 310 315 321 319 318 317 315 313 313 311 309 311 310 311 311 310 311 310 310 309 309 310 310 311 313 316 314 314 315
309 314 311 313 315 321 319 319 318 316 314 312 312 311 309 308 308 312 311 311 309 309 310 311 309 309 311 313 313 309 309 306

GFSFLT2_sfc_thetae_114.txt.gz
Theta_e
310 313 317 309 304 310 300 303 299 304 308 317 320 318 320 321 324 324 327 331 332 334 336 337 339 344 344 344 343 343 343 345
307 307 315 309 309 297 297 294 293 301 304 306 314 317 318 318 321 323 329 331 333 335 337 338 340 344 347 346 345 345 344 346
301 296 297 298 296 295 297 300 294 295 300 315 315 319 321 322 322 322 328 331 333 335 337 339 341 345 347 347 345 346 347 347
296 303 306 299 295 295 292 292 295 298 297 317 319 320 323 325 328 323 328 331 331 335 336 338 342 345 347 347 346 346 349 347
294 298 303 300 301 298 294 291 290 289 293 317 316 315 320 321 326 331 327 328 330 334 335 338 339 343 346 346 346 346 348 346
289 294 299 298 302 301 293 288 289 292 297 311 318 319 323 328 319 326 331 327 328 332 336 337 338 340 340 340 340 341 344 346
302 301 304 303 301 303 297 298 293 299 307 312 320 318 319 324 324 326 328 328 332 332 335 336 337 337 338 340 340 341 340 342
294 302 302 302 305 310 310 309 311 312 311 318 321 322 320 324 324 322 324 325 334 334 335 333 333 333 335 335 339 342 340 342
290 300 298 296 305 309 310 314 312 307 312 316 315 320 323 324 325 323 324 325 325 333 334 333 334 335 334 334 335 340 341 342
291 293 288 298 309 313 311 313 314 316 312 314 319 321 321 323 321 323 324 324 323 325 328 330 334 334 337 335 335 341 341 341
289 289 296 303 304 304 306 308 316 315 317 316 319 320 316 319 319 317 319 322 323 324 325 328 329 335 340 339 340 339 339 340
293 290 288 298 307 312 309 299 315 317 315 314 316 308 313 315 316 316 316 317 318 321 322 325 323 333 333 336 338 339 338 339
294 293 298 307 308 311 295 298 314 317 314 310 311 314 314 314 313 314 314 315 316 316 316 320 323 326 325 326 327 331 339 340
295 292 290 309 309 303 305 308 316 316 315 314 313 311 311 311 311 312 311 313 314 314 315 317 321 322 320 320 324 327 330 330
296 296 303 307 307 311 311 314 312 315 313 311 309 309 309 309 310 310 311 311 312 312 312 314 317 320 318 320 324 324 321 318
298 302 304 309 311 317 316 315 314 313 311 308 309 309 309 309 309 309 310 310 311 310 309 310 312 315 316 318 320 321 319 315
298 302 305 309 314 317 317 316 313 313 311 308 309 308 308 309 309 309 309 309 309 309 308 309 311 312 315 316 317 317 318 316
296 303 302 305 312 319 316 313 312 311 309 310 307 305 309 309 310 309 309 309 307 306 307 308 306 308 310 313 315 314 314 317
305 307 308 311 319 320 316 315 314 312 311 308 308 307 306 304 305 311 310 306 307 307 309 308 308 309 309 311 308 306 306 308

GFSFLT2_sfc_thetae_117.txt.gz
Theta_e
317 317 315 308 301 306 302 298 298 305 309 314 319 318 319 318 323 325 328 330 331 332 334 335 338 339 340 338 339 341 340 342
306 317 317 309 310 299 299 292 291 300 303 304 312 314 316 318 320 324 328 330 330 332 335 336 338 341 342 341 339 342 341 342
299 297 306 297 296 295 297 297 292 293 299 313 312 317 316 318 322 325 327 330 331 332 335 337 339 341 342 342 341 341 341 342
295 301 302 301 294 293 291 290 292 294 293 314 318 319 323 323 325 325 327 330 332 333 335 337 337 339 342 343 343 343 344 343
293 296 301 300 299 295 290 289 287 288 292 320 321 323 326 323 323 327 329 330 331 333 335 336 337 339 341 344 344 344 345 345
292 292 296 298 300 299 292 291 290 290 303 314 315 319 319 323 326 326 328 328 328 330 333 337 339 341 343 345 345 345 346 345
299 300 299 300 305 307 301 299 293 301 308 313 318 317 320 321 324 325 326 329 331 328 334 336 338 341 344 344 345 345 345 345
296 302 303 305 308 308 309 310 310 311 309 315 322 323 322 322 321 320 324 327 330 332 334 335 337 339 341 341 342 343 343 344
289 297 301 296 303 307 308 312 309 301 308 316 317 316 318 319 322 322 323 324 327 329 332 332 333 334 335 336 339 339 340 341
289 293 288 300 308 313 310 311 313 310 313 316 316 316 317 318 316 318 316 321 323 325 330 331 333 334 336 335 335 338 338 340
288 287 294 302 304 304 302 308 313 313 313 315 318 316 314 316 317 316 316 317 320 322 324 326 330 335 336 336 335 337 337 339
290 288 287 297 307 310 309 301 313 315 313 312 313 306 311 314 315 315 316 316 316 318 320 321 324 331 337 336 338 336 337 338
290 288 295 306 308 311 295 296 312 315 312 307 308 311 313 314 313 314 314 314 316 316 316 318 322 327 326 328 328 330 339 339
290 287 287 307 307 300 304 309 315 313 313 312 313 312 312 312 312 312 312 313 314 314 315 317 321 323 322 321 324 328 330 329
293 293 302 306 307 308 310 313 314 312 311 313 311 309 309 310 310 310 310 311 312 312 313 314 317 320 319 319 322 319 320 320
296 299 303 307 312 315 316 315 313 312 309 310 308 309 309 309 309 308 309 309 310 310 309 310 313 315 317 320 321 317 315 315
296 300 304 307 310 315 314 313 311 311 309 308 308 308 309 309 308 309 308 309 309 308 307 308 309 311 314 316 318 317 314 312
296 302 302 304 311 316 312 311 310 309 307 307 305 304 305 304 308 308 307 308 306 304 305 306 306 306 307 310 313 315 315 312
302 305 306 308 316 317 313 312 311 309 308 306 306 305 305 303 305 309 307 307 306 303 304 307 306 307 307 308 305 304 304 303